Wetterdaten: Dienstag, 14.05.2013
Datum Zeit Temp. Aussen +5cm Feuchte Auss Luftdruck Regen Sonnenschein Regendauer UV Solar Windben
14.05.2013 00:00 10,9 C 9,6 C 74 % 1011,1 hPa 0,0 l/m 0 min 0 min 0,0 UV-I 0 W/m 0,0 km/h (0 Bft)
14.05.2013 00:02 10,9 C 9,6 C 74 % 1010,9 hPa 0,0 l/m 0 min 0 min 0,0 UV-I 0 W/m 15,4 km/h (3 Bft)
14.05.2013 00:06 10,8 C 9,6 C 73 % 1011,1 hPa 0,0 l/m 0 min 0 min 0,0 UV-I 0 W/m 23,2 km/h (4 Bft)
14.05.2013 00:08 10,8 C 9,6 C 73 % 1011,1 hPa 0,0 l/m 0 min 0 min 0,0 UV-I 0 W/m 7,7 km/h (2 Bft)
14.05.2013 00:10 10,8 C 9,6 C 72 % 1011,1 hPa 0,0 l/m 0 min 0 min 0,0 UV-I 0 W/m 10,3 km/h (2 Bft)
14.05.2013 00:12 10,8 C 9,0 C 73 % 1011,2 hPa 0,0 l/m 0 min 0 min 0,0 UV-I 0 W/m 12,9 km/h (3 Bft)
14.05.2013 00:14 10,7 C 9,0 C 72 % 1011,1 hPa 0,0 l/m 0 min 0 min 0,0 UV-I 0 W/m 10,3 km/h (2 Bft)
14.05.2013 00:16 10,7 C 9,0 C 72 % 1011,1 hPa 0,0 l/m 0 min 0 min 0,0 UV-I 0 W/m 10,3 km/h (2 Bft)
14.05.2013 00:18 10,7 C 9,0 C 72 % 1011,1 hPa 0,0 l/m 0 min 0 min 0,0 UV-I 0 W/m 10,3 km/h (2 Bft)
14.05.2013 00:20 10,6 C 9,0 C 73 % 1011,1 hPa 0,0 l/m 0 min 0 min 0,0 UV-I 0 W/m 2,6 km/h (1 Bft)
14.05.2013 00:22 10,6 C 9,0 C 73 % 1011,1 hPa 0,0 l/m 0 min 0 min 0,0 UV-I 0 W/m 10,3 km/h (2 Bft)
14.05.2013 00:24 10,6 C 9,0 C 73 % 1011,1 hPa 0,0 l/m 0 min 0 min 0,0 UV-I 0 W/m 5,1 km/h (1 Bft)
14.05.2013 00:26 10,6 C 9,0 C 73 % 1011,1 hPa 0,0 l/m 0 min 0 min 0,0 UV-I 0 W/m 12,9 km/h (3 Bft)
14.05.2013 00:28 10,5 C 9,0 C 73 % 1011,1 hPa 0,0 l/m 0 min 0 min 0,0 UV-I 0 W/m 10,3 km/h (2 Bft)
14.05.2013 00:30 10,5 C 9,0 C 73 % 1011,1 hPa 0,0 l/m 0 min 0 min 0,0 UV-I 0 W/m 20,6 km/h (4 Bft)
14.05.2013 00:32 10,4 C 9,0 C 73 % 1011,0 hPa 0,0 l/m 0 min 0 min 0,0 UV-I 0 W/m 10,3 km/h (2 Bft)
14.05.2013 00:34 10,4 C 9,0 C 74 % 1011,2 hPa 0,0 l/m 0 min 0 min 0,0 UV-I 0 W/m 28,3 km/h (4 Bft)
14.05.2013 00:36 10,4 C 9,0 C 73 % 1011,1 hPa 0,0 l/m 0 min 0 min 0,0 UV-I 0 W/m 18,0 km/h (3 Bft)
14.05.2013 00:38 10,4 C 9,0 C 73 % 1010,9 hPa 0,0 l/m 0 min 0 min 0,0 UV-I 0 W/m 7,7 km/h (2 Bft)
14.05.2013 00:40 10,4 C 9,0 C 72 % 1011,1 hPa 0,0 l/m 0 min 0 min 0,0 UV-I 0 W/m 25,7 km/h (4 Bft)
14.05.2013 00:42 10,3 C 9,0 C 73 % 1011,0 hPa 0,0 l/m 0 min 0 min 0,0 UV-I 0 W/m 10,3 km/h (2 Bft)
14.05.2013 00:44 10,3 C 9,0 C 73 % 1011,0 hPa 0,0 l/m 0 min 0 min 0,0 UV-I 0 W/m 12,9 km/h (3 Bft)
14.05.2013 00:46 10,3 C 9,0 C 72 % 1011,0 hPa 0,0 l/m 0 min 0 min 0,0 UV-I 0 W/m 15,4 km/h (3 Bft)
14.05.2013 00:48 10,3 C 9,0 C 72 % 1011,1 hPa 0,0 l/m 0 min 0 min 0,0 UV-I 0 W/m 20,6 km/h (4 Bft)
14.05.2013 00:50 10,3 C 9,0 C 72 % 1010,9 hPa 0,0 l/m 0 min 0 min 0,0 UV-I 0 W/m 7,7 km/h (2 Bft)
14.05.2013 00:52 10,3 C 9,0 C 72 % 1010,9 hPa 0,0 l/m 0 min 0 min 0,0 UV-I 0 W/m 7,7 km/h (2 Bft)
14.05.2013 00:54 10,3 C 9,0 C 73 % 1010,9 hPa 0,0 l/m 0 min 0 min 0,0 UV-I 0 W/m 15,4 km/h (3 Bft)
14.05.2013 00:56 10,3 C 9,0 C 73 % 1010,9 hPa 0,0 l/m 0 min 0 min 0,0 UV-I 0 W/m 15,4 km/h (3 Bft)
14.05.2013 00:58 10,3 C 9,0 C 73 % 1011,1 hPa 0,0 l/m 0 min 0 min 0,0 UV-I 0 W/m 28,3 km/h (4 Bft)
14.05.2013 01:00 10,3 C 9,0 C 72 % 1010,9 hPa 0,0 l/m 0 min 0 min 0,0 UV-I 0 W/m 23,2 km/h (4 Bft)
14.05.2013 01:02 10,3 C 9,0 C 73 % 1010,8 hPa 0,0 l/m 0 min 0 min 0,0 UV-I 0 W/m 12,9 km/h (3 Bft)
14.05.2013 01:04 10,3 C 9,0 C 73 % 1010,8 hPa 0,0 l/m 0 min 0 min 0,0 UV-I 0 W/m 10,3 km/h (2 Bft)
14.05.2013 01:06 10,3 C 9,0 C 73 % 1010,9 hPa 0,0 l/m 0 min 0 min 0,0 UV-I 0 W/m 10,3 km/h (2 Bft)
14.05.2013 01:08 10,3 C 9,0 C 73 % 1010,8 hPa 0,0 l/m 0 min 0 min 0,0 UV-I 0 W/m 10,3 km/h (2 Bft)
14.05.2013 01:10 10,3 C 9,0 C 73 % 1010,8 hPa 0,0 l/m 0 min 0 min 0,0 UV-I 0 W/m 7,7 km/h (2 Bft)
14.05.2013 01:12 10,3 C 9,0 C 73 % 1010,8 hPa 0,0 l/m 0 min 0 min 0,0 UV-I 0 W/m 18,0 km/h (3 Bft)
14.05.2013 01:14 10,2 C 9,0 C 73 % 1010,8 hPa 0,0 l/m 0 min 0 min 0,0 UV-I 0 W/m 18,0 km/h (3 Bft)
14.05.2013 01:16 10,2 C 9,0 C 73 % 1010,8 hPa 0,0 l/m 0 min 0 min 0,0 UV-I 0 W/m 7,7 km/h (2 Bft)
14.05.2013 01:18 10,2 C 9,0 C 74 % 1010,8 hPa 0,0 l/m 0 min 0 min 0,0 UV-I 0 W/m 10,3 km/h (2 Bft)
14.05.2013 01:20 10,2 C 9,0 C 73 % 1010,7 hPa 0,0 l/m 0 min 0 min 0,0 UV-I 0 W/m 10,3 km/h (2 Bft)
14.05.2013 01:22 10,2 C 9,0 C 73 % 1010,7 hPa 0,0 l/m 0 min 0 min 0,0 UV-I 0 W/m 7,7 km/h (2 Bft)
14.05.2013 01:24 10,2 C 9,0 C 74 % 1010,7 hPa 0,0 l/m 0 min 0 min 0,0 UV-I 0 W/m 10,3 km/h (2 Bft)
14.05.2013 01:26 10,2 C 9,0 C 74 % 1010,7 hPa 0,0 l/m 0 min 0 min 0,0 UV-I 0 W/m 15,4 km/h (3 Bft)
14.05.2013 01:28 10,1 C 9,0 C 73 % 1010,7 hPa 0,0 l/m 0 min 0 min 0,0 UV-I 0 W/m 10,3 km/h (2 Bft)
14.05.2013 01:30 10,1 C 9,0 C 73 % 1010,7 hPa 0,0 l/m 0 min 0 min 0,0 UV-I 0 W/m 10,3 km/h (2 Bft)
14.05.2013 01:32 10,1 C 9,0 C 73 % 1010,7 hPa 0,0 l/m 0 min 0 min 0,0 UV-I 0 W/m 12,9 km/h (3 Bft)
14.05.2013 01:34 10,1 C 9,0 C 73 % 1010,7 hPa 0,0 l/m 0 min 0 min 0,0 UV-I 0 W/m 5,1 km/h (1 Bft)
14.05.2013 01:36 10,1 C 8,4 C 74 % 1010,7 hPa 0,0 l/m 0 min 0 min 0,0 UV-I 0 W/m 7,7 km/h (2 Bft)
14.05.2013 01:38 10,1 C 8,4 C 74 % 1010,6 hPa 0,0 l/m 0 min 0 min 0,0 UV-I 0 W/m 5,1 km/h (1 Bft)
14.05.2013 01:40 10,0 C 8,4 C 74 % 1010,7 hPa 0,0 l/m 0 min 0 min 0,0 UV-I 0 W/m 12,9 km/h (3 Bft)
14.05.2013 01:42 10,0 C 8,4 C 74 % 1010,6 hPa 0,0 l/m 0 min 0 min 0,0 UV-I 0 W/m 12,9 km/h (3 Bft)
14.05.2013 01:44 10,0 C 8,4 C 74 % 1010,7 hPa 0,0 l/m 0 min 0 min 0,0 UV-I 0 W/m 0,0 km/h (0 Bft)
14.05.2013 01:46 10,0 C 8,4 C 74 % 1010,7 hPa 0,0 l/m 0 min 0 min 0,0 UV-I 0 W/m 12,9 km/h (3 Bft)
14.05.2013 01:48 9,9 C 8,4 C 74 % 1010,7 hPa 0,0 l/m 0 min 0 min 0,0 UV-I 0 W/m 10,3 km/h (2 Bft)
14.05.2013 01:50 9,9 C 8,4 C 74 % 1010,6 hPa 0,0 l/m 0 min 0 min 0,0 UV-I 0 W/m 12,9 km/h (3 Bft)
14.05.2013 01:52 9,9 C 8,4 C 74 % 1010,6 hPa 0,0 l/m 0 min 0 min 0,0 UV-I 0 W/m 12,9 km/h (3 Bft)
14.05.2013 01:54 9,9 C 8,4 C 74 % 1010,6 hPa 0,0 l/m 0 min 0 min 0,0 UV-I 0 W/m 12,9 km/h (3 Bft)
14.05.2013 01:56 9,9 C 8,4 C 74 % 1010,6 hPa 0,0 l/m 0 min 0 min 0,0 UV-I 0 W/m 10,3 km/h (2 Bft)
14.05.2013 01:58 9,9 C 8,4 C 74 % 1010,6 hPa 0,0 l/m 0 min 0 min 0,0 UV-I 0 W/m 10,3 km/h (2 Bft)
14.05.2013 02:00 9,9 C 8,4 C 74 % 1010,6 hPa 0,0 l/m 0 min 0 min 0,0 UV-I 0 W/m 5,1 km/h (1 Bft)
14.05.2013 02:02 9,9 C 8,4 C 74 % 1010,6 hPa 0,0 l/m 0 min 0 min 0,0 UV-I 0 W/m 2,6 km/h (1 Bft)
14.05.2013 02:04 9,9 C 8,4 C 74 % 1010,6 hPa 0,0 l/m 0 min 0 min 0,0 UV-I 0 W/m 5,1 km/h (1 Bft)
14.05.2013 02:06 9,9 C 8,4 C 74 % 1010,6 hPa 0,0 l/m 0 min 0 min 0,0 UV-I 0 W/m 12,9 km/h (3 Bft)
14.05.2013 02:08 9,8 C 8,4 C 74 % 1010,6 hPa 0,0 l/m 0 min 0 min 0,0 UV-I 0 W/m 12,9 km/h (3 Bft)
14.05.2013 02:10 9,8 C 8,4 C 75 % 1010,6 hPa 0,0 l/m 0 min 0 min 0,0 UV-I 0 W/m 7,7 km/h (2 Bft)
14.05.2013 02:12 9,8 C 8,4 C 75 % 1010,6 hPa 0,0 l/m 0 min 0 min 0,0 UV-I 0 W/m 10,3 km/h (2 Bft)
14.05.2013 02:14 9,8 C 8,4 C 75 % 1010,6 hPa 0,0 l/m 0 min 0 min 0,0 UV-I 0 W/m 5,1 km/h (1 Bft)
14.05.2013 02:16 9,8 C 8,4 C 75 % 1010,6 hPa 0,0 l/m 0 min 0 min 0,0 UV-I 0 W/m 12,9 km/h (3 Bft)
14.05.2013 02:18 9,8 C 8,4 C 75 % 1010,6 hPa 0,0 l/m 0 min 0 min 0,0 UV-I 0 W/m 5,1 km/h (1 Bft)
14.05.2013 02:20 9,8 C 8,4 C 75 % 1010,6 hPa 0,0 l/m 0 min 0 min 0,0 UV-I 0 W/m 7,7 km/h (2 Bft)
14.05.2013 02:22 9,7 C 8,4 C 75 % 1010,7 hPa 0,0 l/m 0 min 0 min 0,0 UV-I 0 W/m 7,7 km/h (2 Bft)
14.05.2013 02:24 9,7 C 8,4 C 75 % 1010,6 hPa 0,0 l/m 0 min 0 min 0,0 UV-I 0 W/m 12,9 km/h (3 Bft)
14.05.2013 02:26 9,7 C 8,4 C 76 % 1010,6 hPa 0,0 l/m 0 min 0 min 0,0 UV-I 0 W/m 2,6 km/h (1 Bft)
14.05.2013 02:28 9,7 C 7,9 C 76 % 1010,5 hPa 0,0 l/m 0 min 0 min 0,0 UV-I 0 W/m 5,1 km/h (1 Bft)
14.05.2013 02:30 9,7 C 7,9 C 76 % 1010,6 hPa 0,0 l/m 0 min 0 min 0,0 UV-I 0 W/m 10,3 km/h (2 Bft)
14.05.2013 02:32 9,6 C 7,9 C 75 % 1010,5 hPa 0,0 l/m 0 min 0 min 0,0 UV-I 0 W/m 12,9 km/h (3 Bft)
14.05.2013 02:34 9,6 C 7,9 C 75 % 1010,5 hPa 0,0 l/m 0 min 0 min 0,0 UV-I 0 W/m 10,3 km/h (2 Bft)
14.05.2013 02:36 9,6 C 7,9 C 75 % 1010,6 hPa 0,0 l/m 0 min 0 min 0,0 UV-I 0 W/m 10,3 km/h (2 Bft)
14.05.2013 02:38 9,6 C 7,9 C 75 % 1010,6 hPa 0,0 l/m 0 min 0 min 0,0 UV-I 0 W/m 7,7 km/h (2 Bft)
14.05.2013 02:40 9,5 C 7,9 C 75 % 1010,5 hPa 0,0 l/m 0 min 0 min 0,0 UV-I 0 W/m 7,7 km/h (2 Bft)
14.05.2013 02:42 9,5 C 7,9 C 75 % 1010,5 hPa 0,0 l/m 0 min 0 min 0,0 UV-I 0 W/m 20,6 km/h (4 Bft)
14.05.2013 02:44 9,5 C 7,9 C 75 % 1010,5 hPa 0,0 l/m 0 min 0 min 0,0 UV-I 0 W/m 10,3 km/h (2 Bft)
14.05.2013 02:46 9,5 C 7,9 C 76 % 1010,5 hPa 0,0 l/m 0 min 0 min 0,0 UV-I 0 W/m 12,9 km/h (3 Bft)
14.05.2013 02:48 9,4 C 7,9 C 76 % 1010,4 hPa 0,0 l/m 0 min 0 min 0,0 UV-I 0 W/m 18,0 km/h (3 Bft)
14.05.2013 02:50 9,4 C 7,9 C 76 % 1010,4 hPa 0,0 l/m 0 min 0 min 0,0 UV-I 0 W/m 2,6 km/h (1 Bft)
14.05.2013 02:52 9,4 C 7,9 C 76 % 1010,4 hPa 0,0 l/m 0 min 0 min 0,0 UV-I 0 W/m 5,1 km/h (1 Bft)
14.05.2013 02:54 9,4 C 7,9 C 76 % 1010,5 hPa 0,0 l/m 0 min 0 min 0,0 UV-I 0 W/m 15,4 km/h (3 Bft)
14.05.2013 02:56 9,4 C 7,9 C 76 % 1010,5 hPa 0,0 l/m 0 min 0 min 0,0 UV-I 0 W/m 18,0 km/h (3 Bft)
14.05.2013 02:58 9,3 C 7,9 C 76 % 1010,5 hPa 0,0 l/m 0 min 0 min 0,0 UV-I 0 W/m 10,3 km/h (2 Bft)
14.05.2013 03:00 9,3 C 7,9 C 76 % 1010,4 hPa 0,0 l/m 0 min 0 min 0,0 UV-I 0 W/m 5,1 km/h (1 Bft)
14.05.2013 03:02 9,3 C 7,9 C 76 % 1010,4 hPa 0,0 l/m 0 min 0 min 0,0 UV-I 0 W/m 12,9 km/h (3 Bft)
14.05.2013 03:04 9,3 C 7,9 C 76 % 1010,4 hPa 0,0 l/m 0 min 0 min 0,0 UV-I 0 W/m 15,4 km/h (3 Bft)
14.05.2013 03:06 9,3 C 7,9 C 76 % 1010,4 hPa 0,0 l/m 0 min 0 min 0,0 UV-I 0 W/m 12,9 km/h (3 Bft)
14.05.2013 03:08 9,3 C 7,9 C 76 % 1010,4 hPa 0,0 l/m 0 min 0 min 0,0 UV-I 0 W/m 5,1 km/h (1 Bft)
14.05.2013 03:10 9,3 C 7,9 C 76 % 1010,5 hPa 0,0 l/m 0 min 0 min 0,0 UV-I 0 W/m 7,7 km/h (2 Bft)
14.05.2013 03:12 9,3 C 7,9 C 76 % 1010,5 hPa 0,0 l/m 0 min 0 min 0,0 UV-I 0 W/m 10,3 km/h (2 Bft)
14.05.2013 03:14 9,3 C 7,9 C 76 % 1010,4 hPa 0,0 l/m 0 min 0 min 0,0 UV-I 0 W/m 5,1 km/h (1 Bft)
14.05.2013 03:16 9,3 C 7,9 C 76 % 1010,4 hPa 0,0 l/m 0 min 0 min 0,0 UV-I 0 W/m 5,1 km/h (1 Bft)
14.05.2013 03:18 9,3 C 7,9 C 76 % 1010,4 hPa 0,0 l/m 0 min 0 min 0,0 UV-I 0 W/m 5,1 km/h (1 Bft)
14.05.2013 03:20 9,3 C 7,9 C 77 % 1010,4 hPa 0,0 l/m 0 min 0 min 0,0 UV-I 0 W/m 7,7 km/h (2 Bft)
14.05.2013 03:22 9,2 C 7,9 C 77 % 1010,4 hPa 0,0 l/m 0 min 0 min 0,0 UV-I 0 W/m 10,3 km/h (2 Bft)
14.05.2013 03:24 9,2 C 7,9 C 77 % 1010,4 hPa 0,0 l/m 0 min 0 min 0,0 UV-I 0 W/m 7,7 km/h (2 Bft)
14.05.2013 03:26 9,2 C 7,9 C 77 % 1010,5 hPa 0,0 l/m 0 min 0 min 0,0 UV-I 0 W/m 7,7 km/h (2 Bft)
14.05.2013 03:28 9,2 C 7,9 C 77 % 1010,5 hPa 0,0 l/m 0 min 0 min 0,0 UV-I 0 W/m 15,4 km/h (3 Bft)
14.05.2013 03:30 9,2 C 7,9 C 77 % 1010,6 hPa 0,0 l/m 0 min 0 min 0,0 UV-I 0 W/m 0,0 km/h (0 Bft)
14.05.2013 03:32 9,2 C 7,9 C 77 % 1010,5 hPa 0,0 l/m 0 min 0 min 0,0 UV-I 0 W/m 2,6 km/h (1 Bft)
14.05.2013 03:34 9,1 C 7,9 C 77 % 1010,4 hPa 0,0 l/m 0 min 0 min 0,0 UV-I 0 W/m 10,3 km/h (2 Bft)
14.05.2013 03:36 9,1 C 7,9 C 77 % 1010,4 hPa 0,0 l/m 0 min 0 min 0,0 UV-I 0 W/m 7,7 km/h (2 Bft)
14.05.2013 03:38 9,1 C 7,9 C 77 % 1010,4 hPa 0,0 l/m 0 min 0 min 0,0 UV-I 0 W/m 12,9 km/h (3 Bft)
14.05.2013 03:40 9,1 C 7,9 C 77 % 1010,4 hPa 0,0 l/m 0 min 0 min 0,0 UV-I 0 W/m 12,9 km/h (3 Bft)
14.05.2013 03:42 9,1 C 7,9 C 77 % 1010,4 hPa 0,0 l/m 0 min 0 min 0,0 UV-I 0 W/m 7,7 km/h (2 Bft)
14.05.2013 03:44 9,1 C 7,9 C 77 % 1010,4 hPa 0,0 l/m 0 min 0 min 0,0 UV-I 0 W/m 10,3 km/h (2 Bft)
14.05.2013 03:46 9,1 C 7,9 C 77 % 1010,5 hPa 0,0 l/m 0 min 0 min 0,0 UV-I 0 W/m 5,1 km/h (1 Bft)
14.05.2013 03:48 9,1 C 7,9 C 77 % 1010,5 hPa 0,0 l/m 0 min 0 min 0,0 UV-I 0 W/m 7,7 km/h (2 Bft)
14.05.2013 03:50 9,1 C 7,9 C 77 % 1010,4 hPa 0,0 l/m 0 min 0 min 0,0 UV-I 0 W/m 2,6 km/h (1 Bft)
14.05.2013 03:52 9,1 C 7,9 C 77 % 1010,4 hPa 0,0 l/m 0 min 0 min 0,0 UV-I 0 W/m 2,6 km/h (1 Bft)
14.05.2013 03:54 9,0 C 7,9 C 77 % 1010,4 hPa 0,0 l/m 0 min 0 min 0,0 UV-I 0 W/m 7,7 km/h (2 Bft)
14.05.2013 03:56 9,0 C 7,9 C 78 % 1010,4 hPa 0,0 l/m 0 min 0 min 0,0 UV-I 0 W/m 12,9 km/h (3 Bft)
14.05.2013 03:58 9,0 C 7,9 C 78 % 1010,4 hPa 0,0 l/m 0 min 0 min 0,0 UV-I 0 W/m 10,3 km/h (2 Bft)
14.05.2013 04:00 9,0 C 7,9 C 78 % 1010,5 hPa 0,0 l/m 0 min 0 min 0,0 UV-I 0 W/m 15,4 km/h (3 Bft)
14.05.2013 04:05 9,0 C 7,9 C 78 % 1010,5 hPa 0,0 l/m 0 min 0 min 0,0 UV-I 0 W/m 5,1 km/h (1 Bft)
14.05.2013 04:06 9,0 C 7,9 C 78 % 1010,5 hPa 0,0 l/m 0 min 0 min 0,0 UV-I 0 W/m 5,1 km/h (1 Bft)
14.05.2013 04:08 9,0 C 7,9 C 78 % 1010,4 hPa 0,0 l/m 0 min 0 min 0,0 UV-I 0 W/m 7,7 km/h (2 Bft)
14.05.2013 04:10 9,0 C 7,9 C 78 % 1010,4 hPa 0,0 l/m 0 min 0 min 0,0 UV-I 0 W/m 12,9 km/h (3 Bft)
14.05.2013 04:12 9,0 C 7,9 C 81 % 1010,4 hPa 0,0 l/m 0 min 0 min 0,0 UV-I 0 W/m 5,1 km/h (1 Bft)
14.05.2013 04:14 9,0 C 7,9 C 78 % 1010,5 hPa 0,0 l/m 0 min 0 min 0,0 UV-I 0 W/m 2,6 km/h (1 Bft)
14.05.2013 04:16 9,0 C 7,9 C 78 % 1010,5 hPa 0,0 l/m 0 min 0 min 0,0 UV-I 0 W/m 10,3 km/h (2 Bft)
14.05.2013 04:18 8,9 C 7,3 C 78 % 1010,5 hPa 0,0 l/m 0 min 0 min 0,0 UV-I 0 W/m 2,6 km/h (1 Bft)
14.05.2013 04:20 8,9 C 7,3 C 78 % 1010,5 hPa 0,0 l/m 0 min 0 min 0,0 UV-I 0 W/m 5,1 km/h (1 Bft)
14.05.2013 04:22 8,9 C 7,3 C 78 % 1010,5 hPa 0,0 l/m 0 min 0 min 0,0 UV-I 0 W/m 0,0 km/h (0 Bft)
14.05.2013 04:24 8,9 C 7,3 C 78 % 1010,4 hPa 0,0 l/m 0 min 0 min 0,0 UV-I 0 W/m 7,7 km/h (2 Bft)
14.05.2013 04:26 8,9 C 7,3 C 78 % 1010,4 hPa 0,0 l/m 0 min 0 min 0,0 UV-I 0 W/m 10,3 km/h (2 Bft)
14.05.2013 04:28 8,9 C 7,3 C 78 % 1010,6 hPa 0,0 l/m 0 min 0 min 0,0 UV-I 0 W/m 10,3 km/h (2 Bft)
14.05.2013 04:30 8,9 C 7,3 C 78 % 1010,5 hPa 0,0 l/m 0 min 0 min 0,0 UV-I 0 W/m 5,1 km/h (1 Bft)
14.05.2013 04:32 8,8 C 7,9 C 78 % 1010,5 hPa 0,0 l/m 0 min 0 min 0,0 UV-I 0 W/m 10,3 km/h (2 Bft)
14.05.2013 04:34 8,8 C 7,9 C 78 % 1010,5 hPa 0,0 l/m 0 min 0 min 0,0 UV-I 0 W/m 10,3 km/h (2 Bft)
14.05.2013 04:36 8,8 C 7,9 C 78 % 1010,4 hPa 0,0 l/m 0 min 0 min 0,0 UV-I 0 W/m 18,0 km/h (3 Bft)
14.05.2013 04:38 8,8 C 7,9 C 78 % 1010,5 hPa 0,0 l/m 0 min 0 min 0,0 UV-I 0 W/m 7,7 km/h (2 Bft)
14.05.2013 04:40 8,8 C 7,9 C 79 % 1010,4 hPa 0,0 l/m 0 min 0 min 0,0 UV-I 0 W/m 10,3 km/h (2 Bft)
14.05.2013 04:42 8,8 C 7,3 C 79 % 1010,5 hPa 0,0 l/m 0 min 0 min 0,0 UV-I 0 W/m 15,4 km/h (3 Bft)
14.05.2013 04:44 8,8 C 7,3 C 79 % 1010,5 hPa 0,0 l/m 0 min 0 min 0,0 UV-I 0 W/m 10,3 km/h (2 Bft)
14.05.2013 04:46 8,8 C 7,3 C 79 % 1010,4 hPa 0,0 l/m 0 min 0 min 0,0 UV-I 0 W/m 7,7 km/h (2 Bft)
14.05.2013 04:48 8,8 C 7,3 C 79 % 1010,4 hPa 0,0 l/m 0 min 0 min 0,0 UV-I 0 W/m 2,6 km/h (1 Bft)
14.05.2013 04:50 8,8 C 7,3 C 79 % 1010,4 hPa 0,0 l/m 0 min 0 min 0,0 UV-I 0 W/m 10,3 km/h (2 Bft)
14.05.2013 04:52 8,8 C 7,3 C 79 % 1010,4 hPa 0,0 l/m 0 min 0 min 0,0 UV-I 0 W/m 15,4 km/h (3 Bft)
14.05.2013 04:54 8,8 C 7,3 C 79 % 1010,4 hPa 0,0 l/m 0 min 0 min 0,0 UV-I 0 W/m 7,7 km/h (2 Bft)
14.05.2013 04:56 8,8 C 7,3 C 79 % 1010,4 hPa 0,0 l/m 0 min 0 min 0,0 UV-I 0 W/m 10,3 km/h (2 Bft)
14.05.2013 04:58 8,7 C 7,3 C 79 % 1010,3 hPa 0,0 l/m 0 min 0 min 0,0 UV-I 0 W/m 7,7 km/h (2 Bft)
14.05.2013 05:00 8,7 C 7,3 C 79 % 1010,3 hPa 0,0 l/m 0 min 0 min 0,0 UV-I 0 W/m 7,7 km/h (2 Bft)
14.05.2013 05:02 8,7 C 7,3 C 80 % 1010,5 hPa 0,0 l/m 0 min 0 min 0,0 UV-I 0 W/m 10,3 km/h (2 Bft)
14.05.2013 05:04 8,7 C 7,3 C 80 % 1010,4 hPa 0,0 l/m 0 min 0 min 0,0 UV-I 0 W/m 2,6 km/h (1 Bft)
14.05.2013 05:06 8,7 C 7,9 C 80 % 1010,4 hPa 0,0 l/m 0 min 0 min 0,0 UV-I 0 W/m 5,1 km/h (1 Bft)
14.05.2013 05:08 8,7 C 7,9 C 80 % 1010,4 hPa 0,0 l/m 0 min 0 min 0,0 UV-I 0 W/m 2,6 km/h (1 Bft)
14.05.2013 05:10 8,7 C 7,3 C 80 % 1010,4 hPa 0,0 l/m 0 min 0 min 0,0 UV-I 0 W/m 5,1 km/h (1 Bft)
14.05.2013 05:12 8,7 C 7,3 C 80 % 1010,3 hPa 0,0 l/m 0 min 0 min 0,0 UV-I 0 W/m 7,7 km/h (2 Bft)
14.05.2013 05:14 8,7 C 7,3 C 80 % 1010,4 hPa 0,0 l/m 0 min 0 min 0,0 UV-I 0 W/m 7,7 km/h (2 Bft)
14.05.2013 05:16 8,7 C 7,3 C 80 % 1010,4 hPa 0,0 l/m 0 min 0 min 0,0 UV-I 0 W/m 5,1 km/h (1 Bft)
14.05.2013 05:18 8,7 C 7,3 C 80 % 1010,4 hPa 0,0 l/m 0 min 0 min 0,0 UV-I 0 W/m 12,9 km/h (3 Bft)
14.05.2013 05:20 8,7 C 7,3 C 80 % 1010,4 hPa 0,0 l/m 0 min 0 min 0,0 UV-I 0 W/m 10,3 km/h (2 Bft)
14.05.2013 05:22 8,7 C 7,3 C 80 % 1010,4 hPa 0,0 l/m 0 min 0 min 0,0 UV-I 0 W/m 10,3 km/h (2 Bft)
14.05.2013 05:24 8,6 C 7,3 C 80 % 1010,4 hPa 0,0 l/m 0 min 0 min 0,0 UV-I 0 W/m 5,1 km/h (1 Bft)
14.05.2013 05:26 8,6 C 7,3 C 80 % 1010,3 hPa 0,0 l/m 0 min 0 min 0,0 UV-I 0 W/m 10,3 km/h (2 Bft)
14.05.2013 05:28 8,6 C 7,3 C 80 % 1010,3 hPa 0,0 l/m 0 min 0 min 0,0 UV-I 0 W/m 12,9 km/h (3 Bft)
14.05.2013 05:30 8,6 C 7,3 C 80 % 1010,3 hPa 0,0 l/m 0 min 0 min 0,0 UV-I 0 W/m 5,1 km/h (1 Bft)
14.05.2013 05:32 8,6 C 7,3 C 80 % 1010,3 hPa 0,0 l/m 0 min 0 min 0,0 UV-I 0 W/m 5,1 km/h (1 Bft)
14.05.2013 05:34 8,6 C 7,3 C 80 % 1010,3 hPa 0,0 l/m 0 min 0 min 0,0 UV-I 0 W/m 5,1 km/h (1 Bft)
14.05.2013 05:36 8,6 C 7,3 C 80 % 1010,3 hPa 0,0 l/m 0 min 0 min 0,0 UV-I 0 W/m 10,3 km/h (2 Bft)
14.05.2013 05:38 8,6 C 7,3 C 80 % 1010,3 hPa 0,0 l/m 0 min 0 min 0,0 UV-I 0 W/m 2,6 km/h (1 Bft)
14.05.2013 05:40 8,6 C 7,3 C 81 % 1010,3 hPa 0,0 l/m 0 min 0 min 0,0 UV-I 0 W/m 5,1 km/h (1 Bft)
14.05.2013 05:42 8,6 C 7,3 C 81 % 1010,3 hPa 0,0 l/m 0 min 0 min 0,0 UV-I 0 W/m 0,0 km/h (0 Bft)
14.05.2013 05:44 8,5 C 7,3 C 81 % 1010,3 hPa 0,0 l/m 0 min 0 min 0,0 UV-I 0 W/m 7,7 km/h (2 Bft)
14.05.2013 05:46 8,5 C 7,3 C 81 % 1010,3 hPa 0,0 l/m 0 min 0 min 0,0 UV-I 5 W/m 5,1 km/h (1 Bft)
14.05.2013 05:48 8,5 C 7,3 C 81 % 1010,3 hPa 0,0 l/m 0 min 0 min 0,0 UV-I 5 W/m 2,6 km/h (1 Bft)
14.05.2013 05:50 8,5 C 7,3 C 81 % 1010,3 hPa 0,0 l/m 0 min 0 min 0,0 UV-I 5 W/m 5,1 km/h (1 Bft)
14.05.2013 05:52 8,4 C 7,3 C 81 % 1010,3 hPa 0,0 l/m 0 min 0 min 0,0 UV-I 7 W/m 5,1 km/h (1 Bft)
14.05.2013 05:54 8,4 C 7,3 C 81 % 1010,4 hPa 0,0 l/m 0 min 0 min 0,0 UV-I 7 W/m 0,0 km/h (0 Bft)
14.05.2013 05:56 8,4 C 7,3 C 81 % 1010,4 hPa 0,0 l/m 0 min 0 min 0,0 UV-I 9 W/m 5,1 km/h (1 Bft)
14.05.2013 05:58 8,4 C 7,3 C 81 % 1010,4 hPa 0,0 l/m 0 min 0 min 0,0 UV-I 11 W/m 12,9 km/h (3 Bft)
14.05.2013 06:00 8,4 C 7,3 C 81 % 1010,4 hPa 0,0 l/m 0 min 0 min 0,0 UV-I 12 W/m 2,6 km/h (1 Bft)
14.05.2013 06:02 8,4 C 7,3 C 81 % 1010,3 hPa 0,0 l/m 0 min 0 min 0,0 UV-I 14 W/m 2,6 km/h (1 Bft)
14.05.2013 06:04 8,4 C 7,3 C 82 % 1010,3 hPa 0,0 l/m 0 min 0 min 0,0 UV-I 14 W/m 7,7 km/h (2 Bft)
14.05.2013 06:06 8,4 C 7,3 C 82 % 1010,4 hPa 0,0 l/m 0 min 0 min 0,0 UV-I 16 W/m 7,7 km/h (2 Bft)
14.05.2013 06:08 8,4 C 7,3 C 82 % 1010,4 hPa 0,0 l/m 0 min 0 min 0,0 UV-I 12 W/m 7,7 km/h (2 Bft)
14.05.2013 06:10 8,4 C 7,3 C 82 % 1010,4 hPa 0,0 l/m 0 min 0 min 0,0 UV-I 12 W/m 7,7 km/h (2 Bft)
14.05.2013 06:12 8,5 C 7,9 C 82 % 1010,4 hPa 0,0 l/m 0 min 0 min 0,0 UV-I 16 W/m 7,7 km/h (2 Bft)
14.05.2013 06:14 8,5 C 7,9 C 82 % 1010,4 hPa 0,0 l/m 0 min 0 min 0,0 UV-I 14 W/m 7,7 km/h (2 Bft)
14.05.2013 06:16 8,5 C 7,9 C 82 % 1010,3 hPa 0,0 l/m 0 min 0 min 0,0 UV-I 12 W/m 2,6 km/h (1 Bft)
14.05.2013 06:18 8,6 C 7,9 C 82 % 1010,4 hPa 0,0 l/m 0 min 0 min 0,0 UV-I 12 W/m 0,0 km/h (0 Bft)
14.05.2013 06:20 8,6 C 7,9 C 82 % 1010,4 hPa 0,0 l/m 0 min 0 min 0,0 UV-I 16 W/m 2,6 km/h (1 Bft)
14.05.2013 06:22 8,6 C 7,9 C 82 % 1010,3 hPa 0,0 l/m 0 min 0 min 0,0 UV-I 16 W/m 0,0 km/h (0 Bft)
14.05.2013 06:24 8,6 C 7,9 C 82 % 1010,3 hPa 0,0 l/m 0 min 0 min 0,0 UV-I 19 W/m 15,4 km/h (3 Bft)
14.05.2013 06:26 8,6 C 7,9 C 82 % 1010,5 hPa 0,0 l/m 0 min 0 min 0,0 UV-I 21 W/m 10,3 km/h (2 Bft)
14.05.2013 06:28 8,6 C 7,9 C 82 % 1010,5 hPa 0,0 l/m 0 min 0 min 0,0 UV-I 25 W/m 10,3 km/h (2 Bft)
14.05.2013 06:30 8,7 C 7,9 C 82 % 1010,4 hPa 0,0 l/m 0 min 0 min 0,0 UV-I 26 W/m 15,4 km/h (3 Bft)
14.05.2013 06:32 8,7 C 7,9 C 82 % 1010,4 hPa 0,0 l/m 0 min 0 min 0,0 UV-I 32 W/m 7,7 km/h (2 Bft)
14.05.2013 06:34 8,7 C 7,9 C 82 % 1010,5 hPa 0,0 l/m 0 min 0 min 0,0 UV-I 33 W/m 5,1 km/h (1 Bft)
14.05.2013 06:36 8,8 C 7,9 C 82 % 1010,4 hPa 0,0 l/m 0 min 0 min 0,0 UV-I 42 W/m 7,7 km/h (2 Bft)
14.05.2013 06:38 8,8 C 7,9 C 82 % 1010,4 hPa 0,0 l/m 0 min 0 min 0,0 UV-I 51 W/m 15,4 km/h (3 Bft)
14.05.2013 06:40 8,8 C 8,4 C 82 % 1010,4 hPa 0,0 l/m 0 min 0 min 0,0 UV-I 56 W/m 7,7 km/h (2 Bft)
14.05.2013 06:42 8,8 C 8,4 C 82 % 1010,4 hPa 0,0 l/m 0 min 0 min 0,0 UV-I 51 W/m 0,0 km/h (0 Bft)
14.05.2013 06:44 8,8 C 8,4 C 82 % 1010,4 hPa 0,0 l/m 0 min 0 min 0,0 UV-I 49 W/m 7,7 km/h (2 Bft)
14.05.2013 06:46 8,9 C 8,4 C 82 % 1010,4 hPa 0,0 l/m 0 min 0 min 0,0 UV-I 51 W/m 10,3 km/h (2 Bft)
14.05.2013 06:48 8,9 C 8,4 C 82 % 1010,3 hPa 0,0 l/m 0 min 0 min 0,0 UV-I 49 W/m 7,7 km/h (2 Bft)
14.05.2013 06:50 8,9 C 8,4 C 81 % 1010,4 hPa 0,0 l/m 0 min 0 min 0,0 UV-I 54 W/m 12,9 km/h (3 Bft)
14.05.2013 06:52 8,9 C 8,4 C 81 % 1010,4 hPa 0,0 l/m 0 min 0 min 0,0 UV-I 62 W/m 10,3 km/h (2 Bft)
14.05.2013 06:54 8,9 C 8,4 C 82 % 1010,4 hPa 0,0 l/m 0 min 0 min 0,0 UV-I 70 W/m 0,0 km/h (0 Bft)
14.05.2013 06:56 8,9 C 8,4 C 81 % 1010,3 hPa 0,0 l/m 0 min 0 min 0,0 UV-I 76 W/m 7,7 km/h (2 Bft)
14.05.2013 06:58 9,0 C 8,4 C 82 % 1010,4 hPa 0,0 l/m 0 min 0 min 0,0 UV-I 83 W/m 0,0 km/h (0 Bft)
14.05.2013 07:00 9,0 C 8,4 C 82 % 1010,4 hPa 0,0 l/m 2 min 0 min 0,0 UV-I 95 W/m 7,7 km/h (2 Bft)
14.05.2013 07:02 9,0 C 8,4 C 82 % 1010,4 hPa 0,0 l/m 2 min 0 min 0,0 UV-I 102 W/m 0,0 km/h (0 Bft)
14.05.2013 07:04 9,0 C 8,4 C 82 % 1010,4 hPa 0,0 l/m 2 min 0 min 0,0 UV-I 104 W/m 5,1 km/h (1 Bft)
14.05.2013 07:06 9,1 C 8,4 C 82 % 1010,4 hPa 0,0 l/m 0 min 0 min 0,0 UV-I 93 W/m 5,1 km/h (1 Bft)
14.05.2013 07:08 9,1 C 8,4 C 82 % 1010,3 hPa 0,0 l/m 0 min 0 min 0,0 UV-I 84 W/m 7,7 km/h (2 Bft)
14.05.2013 07:10 9,1 C 8,4 C 82 % 1010,4 hPa 0,0 l/m 0 min 0 min 0,0 UV-I 77 W/m 5,1 km/h (1 Bft)
14.05.2013 07:12 9,1 C 8,4 C 82 % 1010,3 hPa 0,0 l/m 0 min 0 min 0,0 UV-I 70 W/m 5,1 km/h (1 Bft)
14.05.2013 07:14 9,1 C 8,4 C 82 % 1010,3 hPa 0,0 l/m 0 min 0 min 0,0 UV-I 70 W/m 5,1 km/h (1 Bft)
14.05.2013 07:16 9,2 C 8,4 C 82 % 1010,3 hPa 0,0 l/m 0 min 0 min 0,0 UV-I 74 W/m 0,0 km/h (0 Bft)
14.05.2013 07:18 9,2 C 8,4 C 82 % 1010,4 hPa 0,0 l/m 0 min 0 min 0,0 UV-I 76 W/m 0,0 km/h (0 Bft)
14.05.2013 07:20 9,2 C 8,4 C 82 % 1010,3 hPa 0,0 l/m 0 min 0 min 0,0 UV-I 79 W/m 12,9 km/h (3 Bft)
14.05.2013 07:22 9,2 C 8,4 C 82 % 1010,3 hPa 0,0 l/m 0 min 0 min 0,0 UV-I 77 W/m 18,0 km/h (3 Bft)
14.05.2013 07:24 9,2 C 8,4 C 81 % 1010,3 hPa 0,0 l/m 0 min 0 min 0,0 UV-I 79 W/m 10,3 km/h (2 Bft)
14.05.2013 07:26 9,2 C 8,4 C 81 % 1010,3 hPa 0,0 l/m 0 min 0 min 0,0 UV-I 76 W/m 7,7 km/h (2 Bft)
14.05.2013 07:28 9,2 C 8,4 C 81 % 1010,3 hPa 0,0 l/m 0 min 0 min 0,0 UV-I 81 W/m 7,7 km/h (2 Bft)
14.05.2013 07:30 9,2 C 8,4 C 81 % 1010,3 hPa 0,0 l/m 0 min 0 min 0,0 UV-I 91 W/m 7,7 km/h (2 Bft)
14.05.2013 07:32 9,2 C 8,4 C 81 % 1010,3 hPa 0,0 l/m 0 min 0 min 0,0 UV-I 90 W/m 7,7 km/h (2 Bft)
14.05.2013 07:34 9,3 C 8,4 C 81 % 1010,3 hPa 0,0 l/m 0 min 0 min 0,0 UV-I 93 W/m 0,0 km/h (0 Bft)
14.05.2013 07:36 9,3 C 8,4 C 81 % 1010,4 hPa 0,0 l/m 0 min 0 min 0,0 UV-I 105 W/m 2,6 km/h (1 Bft)
14.05.2013 07:38 9,3 C 8,4 C 81 % 1010,4 hPa 0,0 l/m 0 min 0 min 0,0 UV-I 111 W/m 5,1 km/h (1 Bft)
14.05.2013 07:40 9,3 C 8,4 C 81 % 1010,4 hPa 0,0 l/m 0 min 0 min 0,0 UV-I 111 W/m 5,1 km/h (1 Bft)
14.05.2013 07:42 9,3 C 9,0 C 81 % 1010,4 hPa 0,0 l/m 0 min 0 min 0,0 UV-I 116 W/m 7,7 km/h (2 Bft)
14.05.2013 07:44 9,3 C 9,0 C 81 % 1010,4 hPa 0,0 l/m 0 min 0 min 0,0 UV-I 113 W/m 2,6 km/h (1 Bft)
14.05.2013 07:46 9,3 C 9,0 C 81 % 1010,5 hPa 0,0 l/m 0 min 0 min 0,0 UV-I 116 W/m 12,9 km/h (3 Bft)
14.05.2013 07:48 9,3 C 9,0 C 81 % 1010,4 hPa 0,0 l/m 0 min 0 min 0,0 UV-I 114 W/m 18,0 km/h (3 Bft)
14.05.2013 07:50 9,3 C 9,0 C 81 % 1010,4 hPa 0,0 l/m 0 min 0 min 0,0 UV-I 120 W/m 10,3 km/h (2 Bft)
14.05.2013 07:52 9,3 C 9,0 C 81 % 1010,4 hPa 0,0 l/m 0 min 0 min 0,0 UV-I 120 W/m 5,1 km/h (1 Bft)
14.05.2013 07:54 9,4 C 9,0 C 81 % 1010,4 hPa 0,0 l/m 0 min 0 min 0,0 UV-I 118 W/m 7,7 km/h (2 Bft)
14.05.2013 07:56 9,4 C 9,0 C 81 % 1010,4 hPa 0,0 l/m 0 min 0 min 0,0 UV-I 125 W/m 7,7 km/h (2 Bft)
14.05.2013 07:58 9,4 C 9,0 C 81 % 1010,4 hPa 0,0 l/m 0 min 0 min 0,0 UV-I 144 W/m 5,1 km/h (1 Bft)
14.05.2013 08:00 9,4 C 9,0 C 81 % 1010,4 hPa 0,0 l/m 0 min 0 min 0,0 UV-I 151 W/m 0,0 km/h (0 Bft)
14.05.2013 08:02 9,4 C 9,0 C 81 % 1010,5 hPa 0,0 l/m 0 min 0 min 0,0 UV-I 151 W/m 12,9 km/h (3 Bft)
14.05.2013 08:04 9,5 C 9,6 C 81 % 1010,4 hPa 0,0 l/m 0 min 0 min 0,0 UV-I 142 W/m 23,2 km/h (4 Bft)
14.05.2013 08:06 9,5 C 9,6 C 81 % 1010,4 hPa 0,0 l/m 0 min 0 min 0,0 UV-I 141 W/m 2,6 km/h (1 Bft)
14.05.2013 08:08 9,6 C 9,6 C 81 % 1010,4 hPa 0,0 l/m 0 min 0 min 0,0 UV-I 149 W/m 7,7 km/h (2 Bft)
14.05.2013 08:10 9,6 C 9,6 C 81 % 1010,4 hPa 0,0 l/m 2 min 0 min 0,0 UV-I 204 W/m 5,1 km/h (1 Bft)
14.05.2013 08:12 9,6 C 9,0 C 81 % 1010,5 hPa 0,0 l/m 0 min 0 min 0,0 UV-I 120 W/m 15,4 km/h (3 Bft)
14.05.2013 08:14 9,6 C 9,0 C 80 % 1010,5 hPa 0,0 l/m 0 min 0 min 0,0 UV-I 127 W/m 10,3 km/h (2 Bft)
14.05.2013 08:16 9,6 C 9,0 C 80 % 1010,4 hPa 0,0 l/m 0 min 0 min 0,0 UV-I 195 W/m 7,7 km/h (2 Bft)
14.05.2013 08:18 9,6 C 9,0 C 80 % 1010,4 hPa 0,0 l/m 2 min 0 min 0,0 UV-I 230 W/m 5,1 km/h (1 Bft)
14.05.2013 08:20 9,6 C 9,0 C 80 % 1010,5 hPa 0,0 l/m 2 min 0 min 0,0 UV-I 243 W/m 18,0 km/h (3 Bft)
14.05.2013 08:22 9,7 C 9,0 C 80 % 1010,5 hPa 0,0 l/m 0 min 0 min 0,0 UV-I 186 W/m 2,6 km/h (1 Bft)
14.05.2013 08:24 9,7 C 9,6 C 80 % 1010,5 hPa 0,0 l/m 0 min 0 min 0,0 UV-I 162 W/m 18,0 km/h (3 Bft)
14.05.2013 08:26 9,7 C 9,6 C 80 % 1010,5 hPa 0,0 l/m 0 min 0 min 0,0 UV-I 176 W/m 10,3 km/h (2 Bft)
14.05.2013 08:28 9,7 C 9,6 C 80 % 1010,5 hPa 0,0 l/m 0 min 0 min 0,0 UV-I 183 W/m 25,7 km/h (4 Bft)
14.05.2013 08:30 9,7 C 9,0 C 80 % 1010,5 hPa 0,0 l/m 2 min 0 min 0,0 UV-I 258 W/m 15,4 km/h (3 Bft)
14.05.2013 08:32 9,8 C 9,6 C 79 % 1010,4 hPa 0,0 l/m 2 min 0 min 0,0 UV-I 267 W/m 10,3 km/h (2 Bft)
14.05.2013 08:34 9,8 C 9,6 C 79 % 1010,5 hPa 0,0 l/m 0 min 0 min 0,0 UV-I 172 W/m 18,0 km/h (3 Bft)
14.05.2013 08:36 9,8 C 9,6 C 79 % 1010,5 hPa 0,0 l/m 0 min 0 min 0,0 UV-I 181 W/m 5,1 km/h (1 Bft)
14.05.2013 08:38 9,8 C 9,6 C 79 % 1010,5 hPa 0,0 l/m 2 min 0 min 0,0 UV-I 248 W/m 7,7 km/h (2 Bft)
14.05.2013 08:40 9,8 C 9,6 C 79 % 1010,5 hPa 0,0 l/m 0 min 0 min 0,0 UV-I 163 W/m 12,9 km/h (3 Bft)
14.05.2013 08:42 9,8 C 9,6 C 79 % 1010,5 hPa 0,0 l/m 2 min 0 min 0,0 UV-I 246 W/m 12,9 km/h (3 Bft)
14.05.2013 08:44 9,9 C 9,6 C 79 % 1010,5 hPa 0,0 l/m 0 min 0 min 0,0 UV-I 192 W/m 7,7 km/h (2 Bft)
14.05.2013 08:46 9,9 C 9,6 C 79 % 1010,5 hPa 0,0 l/m 0 min 0 min 0,0 UV-I 195 W/m 12,9 km/h (3 Bft)
14.05.2013 08:48 9,9 C 10,1 C 79 % 1010,5 hPa 0,0 l/m 0 min 0 min 0,0 UV-I 234 W/m 7,7 km/h (2 Bft)
14.05.2013 08:50 10,0 C 10,1 C 79 % 1010,5 hPa 0,0 l/m 2 min 0 min 0,0 UV-I 371 W/m 10,3 km/h (2 Bft)
14.05.2013 08:52 10,1 C 10,1 C 79 % 1010,5 hPa 0,0 l/m 2 min 0 min 0,0 UV-I 360 W/m 10,3 km/h (2 Bft)
14.05.2013 08:54 10,2 C 10,1 C 79 % 1010,5 hPa 0,0 l/m 2 min 0 min 0,0 UV-I 359 W/m 12,9 km/h (3 Bft)
14.05.2013 08:56 10,2 C 10,1 C 79 % 1010,5 hPa 0,0 l/m 2 min 0 min 0,0 UV-I 299 W/m 10,3 km/h (2 Bft)
14.05.2013 08:58 10,3 C 10,1 C 79 % 1010,5 hPa 0,0 l/m 0 min 0 min 0,0 UV-I 216 W/m 12,9 km/h (3 Bft)
14.05.2013 09:00 10,3 C 10,1 C 78 % 1010,6 hPa 0,0 l/m 0 min 0 min 0,0 UV-I 197 W/m 15,4 km/h (3 Bft)
14.05.2013 09:02 10,3 C 10,1 C 78 % 1010,5 hPa 0,0 l/m 2 min 0 min 0,0 UV-I 315 W/m 12,9 km/h (3 Bft)
14.05.2013 09:04 10,4 C 10,1 C 78 % 1010,6 hPa 0,0 l/m 2 min 0 min 0,0 UV-I 338 W/m 12,9 km/h (3 Bft)
14.05.2013 09:06 10,4 C 10,7 C 77 % 1010,6 hPa 0,0 l/m 2 min 0 min 0,0 UV-I 325 W/m 10,3 km/h (2 Bft)
14.05.2013 09:08 10,4 C 10,7 C 77 % 1010,5 hPa 0,0 l/m 2 min 0 min 0,0 UV-I 283 W/m 5,1 km/h (1 Bft)
14.05.2013 09:10 10,6 C 10,7 C 78 % 1010,6 hPa 0,0 l/m 0 min 0 min 0,0 UV-I 232 W/m 2,6 km/h (1 Bft)
14.05.2013 09:12 10,6 C 10,7 C 78 % 1010,5 hPa 0,0 l/m 0 min 0 min 0,0 UV-I 255 W/m 0,0 km/h (0 Bft)
14.05.2013 09:14 10,6 C 10,7 C 78 % 1010,6 hPa 0,0 l/m 0 min 0 min 0,0 UV-I 218 W/m 7,7 km/h (2 Bft)
14.05.2013 09:16 10,7 C 10,7 C 77 % 1010,5 hPa 0,0 l/m 2 min 0 min 0,0 UV-I 302 W/m 7,7 km/h (2 Bft)
14.05.2013 09:18 10,7 C 10,7 C 77 % 1010,5 hPa 0,0 l/m 0 min 0 min 0,0 UV-I 207 W/m 18,0 km/h (3 Bft)
14.05.2013 09:20 10,7 C 10,7 C 77 % 1010,6 hPa 0,0 l/m 0 min 0 min 0,0 UV-I 186 W/m 12,9 km/h (3 Bft)
14.05.2013 09:22 10,7 C 10,7 C 77 % 1010,5 hPa 0,0 l/m 0 min 0 min 0,0 UV-I 185 W/m 18,0 km/h (3 Bft)
14.05.2013 09:24 10,7 C 10,1 C 76 % 1010,5 hPa 0,0 l/m 0 min 0 min 0,0 UV-I 181 W/m 10,3 km/h (2 Bft)
14.05.2013 09:26 10,7 C 10,7 C 76 % 1010,6 hPa 0,0 l/m 0 min 0 min 0,0 UV-I 207 W/m 2,6 km/h (1 Bft)
14.05.2013 09:28 10,7 C 10,7 C 76 % 1010,5 hPa 0,0 l/m 0 min 0 min 0,0 UV-I 204 W/m 15,4 km/h (3 Bft)
14.05.2013 09:30 10,7 C 10,7 C 76 % 1010,6 hPa 0,0 l/m 0 min 0 min 0,0 UV-I 162 W/m 2,6 km/h (1 Bft)
14.05.2013 09:32 10,7 C 10,7 C 76 % 1010,6 hPa 0,0 l/m 0 min 0 min 0,0 UV-I 188 W/m 12,9 km/h (3 Bft)
14.05.2013 09:34 10,7 C 11,2 C 76 % 1010,5 hPa 0,0 l/m 2 min 0 min 0,6 UV-I 489 W/m 0,0 km/h (0 Bft)
14.05.2013 09:36 10,8 C 11,2 C 77 % 1010,6 hPa 0,0 l/m 2 min 0 min 0,5 UV-I 489 W/m 5,1 km/h (1 Bft)
14.05.2013 09:38 10,8 C 11,2 C 77 % 1010,6 hPa 0,0 l/m 2 min 0 min 0,7 UV-I 313 W/m 12,9 km/h (3 Bft)
14.05.2013 09:40 10,9 C 11,8 C 76 % 1010,5 hPa 0,0 l/m 2 min 0 min 0,7 UV-I 515 W/m 10,3 km/h (2 Bft)
14.05.2013 09:42 10,9 C 11,8 C 76 % 1010,5 hPa 0,0 l/m 0 min 0 min 0,5 UV-I 262 W/m 12,9 km/h (3 Bft)
14.05.2013 09:44 11,1 C 12,3 C 76 % 1010,5 hPa 0,0 l/m 0 min 0 min 0,6 UV-I 262 W/m 0,0 km/h (0 Bft)
14.05.2013 09:46 11,2 C 12,9 C 77 % 1010,4 hPa 0,0 l/m 2 min 0 min 1,1 UV-I 573 W/m 2,6 km/h (1 Bft)
14.05.2013 09:48 11,2 C 13,4 C 77 % 1010,4 hPa 0,0 l/m 2 min 0 min 0,5 UV-I 355 W/m 2,6 km/h (1 Bft)
14.05.2013 09:50 11,3 C 12,9 C 77 % 1010,4 hPa 0,0 l/m 2 min 0 min 0,7 UV-I 322 W/m 0,0 km/h (0 Bft)
14.05.2013 09:52 11,4 C 13,4 C 77 % 1010,4 hPa 0,0 l/m 2 min 0 min 1,4 UV-I 353 W/m 10,3 km/h (2 Bft)
14.05.2013 09:54 11,6 C 15,1 C 75 % 1010,4 hPa 0,0 l/m 2 min 0 min 1,6 UV-I 654 W/m 12,9 km/h (3 Bft)
14.05.2013 09:56 11,7 C 15,7 C 75 % 1010,4 hPa 0,0 l/m 2 min 0 min 1,2 UV-I 731 W/m 12,9 km/h (3 Bft)
14.05.2013 09:58 11,8 C 15,7 C 74 % 1010,4 hPa 0,0 l/m 2 min 0 min 0,5 UV-I 619 W/m 25,7 km/h (4 Bft)
14.05.2013 10:00 11,9 C 14,6 C 74 % 1010,4 hPa 0,0 l/m 0 min 0 min 0,7 UV-I 237 W/m 7,7 km/h (2 Bft)
14.05.2013 10:02 11,9 C 14,0 C 72 % 1010,4 hPa 0,0 l/m 2 min 0 min 1,3 UV-I 779 W/m 18,0 km/h (3 Bft)
14.05.2013 10:04 11,8 C 14,0 C 72 % 1010,4 hPa 0,0 l/m 2 min 0 min 0,9 UV-I 371 W/m 12,9 km/h (3 Bft)
14.05.2013 10:06 11,7 C 14,6 C 73 % 1010,4 hPa 0,0 l/m 2 min 0 min 0,6 UV-I 371 W/m 7,7 km/h (2 Bft)
14.05.2013 10:08 11,7 C 12,9 C 72 % 1010,4 hPa 0,0 l/m 0 min 0 min 0,0 UV-I 241 W/m 15,4 km/h (3 Bft)
14.05.2013 10:10 11,6 C 12,3 C 72 % 1010,4 hPa 0,0 l/m 0 min 0 min 0,0 UV-I 192 W/m 12,9 km/h (3 Bft)
14.05.2013 10:12 11,5 C 11,8 C 74 % 1010,4 hPa 0,0 l/m 0 min 0 min 0,8 UV-I 262 W/m 10,3 km/h (2 Bft)
14.05.2013 10:14 11,4 C 12,9 C 73 % 1010,4 hPa 0,0 l/m 2 min 0 min 1,5 UV-I 422 W/m 10,3 km/h (2 Bft)
14.05.2013 10:16 11,4 C 12,9 C 74 % 1010,4 hPa 0,0 l/m 0 min 0 min 0,5 UV-I 234 W/m 7,7 km/h (2 Bft)
14.05.2013 10:18 11,4 C 12,3 C 74 % 1010,3 hPa 0,0 l/m 0 min 0 min 0,6 UV-I 234 W/m 10,3 km/h (2 Bft)
14.05.2013 10:20 11,4 C 12,3 C 74 % 1010,3 hPa 0,0 l/m 0 min 0 min 1,2 UV-I 350 W/m 2,6 km/h (1 Bft)
14.05.2013 10:22 11,4 C 12,3 C 74 % 1010,3 hPa 0,0 l/m 0 min 0 min 0,8 UV-I 287 W/m 15,4 km/h (3 Bft)
14.05.2013 10:24 11,4 C 12,3 C 74 % 1010,3 hPa 0,0 l/m 0 min 0 min 0,6 UV-I 239 W/m 15,4 km/h (3 Bft)
14.05.2013 10:26 11,4 C 12,3 C 75 % 1010,4 hPa 0,0 l/m 0 min 0 min 1,2 UV-I 304 W/m 15,4 km/h (3 Bft)
14.05.2013 10:28 11,4 C 12,3 C 74 % 1010,4 hPa 0,0 l/m 0 min 0 min 0,9 UV-I 302 W/m 18,0 km/h (3 Bft)
14.05.2013 10:30 11,3 C 11,8 C 73 % 1010,4 hPa 0,0 l/m 0 min 0 min 0,9 UV-I 264 W/m 20,6 km/h (4 Bft)
14.05.2013 10:32 11,3 C 11,8 C 73 % 1010,3 hPa 0,0 l/m 0 min 0 min 0,8 UV-I 265 W/m 10,3 km/h (2 Bft)
14.05.2013 10:34 11,3 C 11,8 C 74 % 1010,4 hPa 0,0 l/m 0 min 0 min 0,6 UV-I 223 W/m 28,3 km/h (4 Bft)
14.05.2013 10:36 11,3 C 11,8 C 74 % 1010,4 hPa 0,0 l/m 0 min 0 min 0,5 UV-I 199 W/m 18,0 km/h (3 Bft)
14.05.2013 10:38 11,2 C 11,2 C 73 % 1010,4 hPa 0,0 l/m 0 min 0 min 0,7 UV-I 186 W/m 12,9 km/h (3 Bft)
14.05.2013 10:40 11,1 C 11,2 C 74 % 1010,3 hPa 0,0 l/m 0 min 0 min 1,0 UV-I 236 W/m 7,7 km/h (2 Bft)
14.05.2013 10:42 11,1 C 11,8 C 74 % 1010,4 hPa 0,0 l/m 0 min 0 min 1,2 UV-I 306 W/m 15,4 km/h (3 Bft)
14.05.2013 10:44 11,2 C 11,8 C 74 % 1010,4 hPa 0,0 l/m 0 min 0 min 1,0 UV-I 248 W/m 2,6 km/h (1 Bft)
14.05.2013 10:46 11,2 C 11,8 C 75 % 1010,4 hPa 0,0 l/m 0 min 0 min 0,8 UV-I 227 W/m 5,1 km/h (1 Bft)
14.05.2013 10:48 11,3 C 11,8 C 75 % 1010,3 hPa 0,0 l/m 0 min 0 min 0,8 UV-I 227 W/m 7,7 km/h (2 Bft)
14.05.2013 10:50 11,3 C 11,8 C 75 % 1010,3 hPa 0,0 l/m 0 min 0 min 1,2 UV-I 274 W/m 10,3 km/h (2 Bft)
14.05.2013 10:52 11,3 C 12,3 C 74 % 1010,3 hPa 0,0 l/m 0 min 0 min 2,3 UV-I 304 W/m 10,3 km/h (2 Bft)
14.05.2013 10:54 11,4 C 12,9 C 75 % 1010,3 hPa 0,0 l/m 0 min 0 min 1,6 UV-I 374 W/m 2,6 km/h (1 Bft)
14.05.2013 10:56 11,5 C 12,9 C 75 % 1010,3 hPa 0,0 l/m 0 min 0 min 1,3 UV-I 297 W/m 10,3 km/h (2 Bft)
14.05.2013 10:58 11,6 C 12,3 C 73 % 1010,3 hPa 0,0 l/m 0 min 0 min 0,9 UV-I 250 W/m 7,7 km/h (2 Bft)
14.05.2013 11:00 11,5 C 12,3 C 73 % 1010,4 hPa 0,0 l/m 0 min 0 min 0,5 UV-I 186 W/m 7,7 km/h (2 Bft)
14.05.2013 11:02 11,4 C 11,8 C 73 % 1010,3 hPa 0,0 l/m 0 min 0 min 0,5 UV-I 183 W/m 10,3 km/h (2 Bft)
14.05.2013 11:04 11,4 C 11,8 C 74 % 1010,3 hPa 0,0 l/m 0 min 0 min 1,4 UV-I 221 W/m 0,0 km/h (0 Bft)
14.05.2013 11:06 11,5 C 13,4 C 74 % 1010,3 hPa 0,0 l/m 2 min 0 min 2,4 UV-I 582 W/m 2,6 km/h (1 Bft)
14.05.2013 11:08 11,8 C 14,6 C 74 % 1010,2 hPa 0,0 l/m 2 min 0 min 2,1 UV-I 520 W/m 12,9 km/h (3 Bft)
14.05.2013 11:10 11,9 C 14,6 C 72 % 1010,2 hPa 0,0 l/m 2 min 0 min 2,4 UV-I 520 W/m 12,9 km/h (3 Bft)
14.05.2013 11:12 12,0 C 15,1 C 73 % 1010,2 hPa 0,0 l/m 2 min 0 min 2,3 UV-I 626 W/m 12,9 km/h (3 Bft)
14.05.2013 11:14 12,1 C 15,1 C 73 % 1010,2 hPa 0,0 l/m 2 min 0 min 2,0 UV-I 406 W/m 7,7 km/h (2 Bft)
14.05.2013 11:16 12,2 C 15,1 C 73 % 1010,2 hPa 0,0 l/m 2 min 0 min 2,4 UV-I 592 W/m 15,4 km/h (3 Bft)
14.05.2013 11:18 12,3 C 15,1 C 72 % 1010,3 hPa 0,0 l/m 2 min 0 min 2,3 UV-I 582 W/m 20,6 km/h (4 Bft)
14.05.2013 11:20 12,3 C 14,6 C 70 % 1010,2 hPa 0,0 l/m 2 min 0 min 2,0 UV-I 446 W/m 15,4 km/h (3 Bft)
14.05.2013 11:22 12,2 C 14,6 C 70 % 1010,2 hPa 0,0 l/m 0 min 0 min 2,2 UV-I 392 W/m 20,6 km/h (4 Bft)
14.05.2013 11:24 12,3 C 15,1 C 70 % 1010,1 hPa 0,0 l/m 2 min 0 min 2,4 UV-I 673 W/m 7,7 km/h (2 Bft)
14.05.2013 11:26 12,4 C 15,7 C 71 % 1010,1 hPa 0,0 l/m 2 min 0 min 2,3 UV-I 673 W/m 10,3 km/h (2 Bft)
14.05.2013 11:28 12,6 C 15,1 C 70 % 1010,1 hPa 0,0 l/m 2 min 0 min 1,1 UV-I 666 W/m 12,9 km/h (3 Bft)
14.05.2013 11:30 12,5 C 14,6 C 69 % 1010,1 hPa 0,0 l/m 0 min 0 min 1,8 UV-I 411 W/m 23,2 km/h (4 Bft)
14.05.2013 11:32 12,5 C 14,0 C 69 % 1010,1 hPa 0,0 l/m 0 min 0 min 1,1 UV-I 357 W/m 15,4 km/h (3 Bft)
14.05.2013 11:34 12,5 C 14,0 C 70 % 1010,1 hPa 0,0 l/m 0 min 0 min 1,3 UV-I 357 W/m 12,9 km/h (3 Bft)
14.05.2013 11:36 12,4 C 13,4 C 69 % 1010,0 hPa 0,0 l/m 0 min 0 min 0,7 UV-I 352 W/m 10,3 km/h (2 Bft)
14.05.2013 11:38 12,4 C 13,4 C 70 % 1010,1 hPa 0,0 l/m 0 min 0 min 0,7 UV-I 253 W/m 7,7 km/h (2 Bft)
14.05.2013 11:40 12,3 C 12,9 C 70 % 1010,0 hPa 0,0 l/m 0 min 0 min 0,8 UV-I 269 W/m 2,6 km/h (1 Bft)
14.05.2013 11:42 12,3 C 13,4 C 71 % 1009,9 hPa 0,0 l/m 0 min 0 min 1,5 UV-I 325 W/m 5,1 km/h (1 Bft)
14.05.2013 11:44 12,4 C 13,4 C 71 % 1010,0 hPa 0,0 l/m 0 min 0 min 1,2 UV-I 322 W/m 5,1 km/h (1 Bft)
14.05.2013 11:46 12,4 C 12,9 C 70 % 1010,0 hPa 0,0 l/m 0 min 0 min 0,8 UV-I 250 W/m 18,0 km/h (3 Bft)
14.05.2013 11:48 12,4 C 12,9 C 70 % 1009,9 hPa 0,0 l/m 0 min 0 min 1,0 UV-I 265 W/m 10,3 km/h (2 Bft)
14.05.2013 11:50 12,4 C 12,9 C 69 % 1010,0 hPa 0,0 l/m 0 min 0 min 0,7 UV-I 232 W/m 10,3 km/h (2 Bft)
14.05.2013 11:52 12,3 C 12,9 C 70 % 1010,0 hPa 0,0 l/m 0 min 0 min 0,0 UV-I 186 W/m 7,7 km/h (2 Bft)
14.05.2013 11:54 12,3 C 12,3 C 70 % 1009,9 hPa 0,0 l/m 0 min 0 min 0,0 UV-I 160 W/m 7,7 km/h (2 Bft)
14.05.2013 11:56 12,2 C 12,3 C 69 % 1010,0 hPa 0,0 l/m 0 min 0 min 0,6 UV-I 207 W/m 15,4 km/h (3 Bft)
14.05.2013 11:58 12,1 C 12,3 C 70 % 1009,9 hPa 0,0 l/m 0 min 0 min 0,8 UV-I 258 W/m 7,7 km/h (2 Bft)
14.05.2013 12:00 12,1 C 12,3 C 70 % 1010,0 hPa 0,0 l/m 0 min 0 min 1,7 UV-I 374 W/m 12,9 km/h (3 Bft)
14.05.2013 12:02 12,1 C 12,9 C 69 % 1010,0 hPa 0,0 l/m 0 min 0 min 1,9 UV-I 404 W/m 5,1 km/h (1 Bft)
14.05.2013 12:04 12,2 C 13,4 C 70 % 1009,9 hPa 0,0 l/m 0 min 0 min 1,8 UV-I 387 W/m 10,3 km/h (2 Bft)
14.05.2013 12:06 12,4 C 13,4 C 71 % 1009,9 hPa 0,0 l/m 0 min 0 min 1,5 UV-I 369 W/m 12,9 km/h (3 Bft)
14.05.2013 12:08 12,6 C 13,4 C 70 % 1009,9 hPa 0,0 l/m 0 min 0 min 1,6 UV-I 417 W/m 10,3 km/h (2 Bft)
14.05.2013 12:10 12,6 C 14,0 C 69 % 1009,9 hPa 0,0 l/m 2 min 0 min 2,0 UV-I 487 W/m 18,0 km/h (3 Bft)
14.05.2013 12:12 12,7 C 14,0 C 69 % 1009,8 hPa 0,0 l/m 2 min 0 min 2,0 UV-I 487 W/m 10,3 km/h (2 Bft)
14.05.2013 12:14 12,8 C 14,6 C 70 % 1009,8 hPa 0,0 l/m 0 min 0 min 1,7 UV-I 408 W/m 10,3 km/h (2 Bft)
14.05.2013 12:16 12,8 C 14,6 C 70 % 1009,8 hPa 0,0 l/m 0 min 0 min 1,7 UV-I 441 W/m 7,7 km/h (2 Bft)
14.05.2013 12:18 12,9 C 14,6 C 69 % 1009,7 hPa 0,0 l/m 2 min 0 min 2,2 UV-I 475 W/m 10,3 km/h (2 Bft)
14.05.2013 12:20 13,1 C 15,1 C 70 % 1009,7 hPa 0,0 l/m 0 min 0 min 1,7 UV-I 429 W/m 0,0 km/h (0 Bft)
14.05.2013 12:22 13,3 C 15,1 C 70 % 1009,7 hPa 0,0 l/m 0 min 0 min 1,4 UV-I 338 W/m 10,3 km/h (2 Bft)
14.05.2013 12:24 13,3 C 14,6 C 69 % 1009,8 hPa 0,0 l/m 0 min 0 min 1,0 UV-I 287 W/m 18,0 km/h (3 Bft)
14.05.2013 12:26 13,2 C 13,4 C 67 % 1009,8 hPa 0,0 l/m 0 min 2 min 0,7 UV-I 227 W/m 18,0 km/h (3 Bft)
14.05.2013 12:28 12,9 C 12,3 C 69 % 1009,8 hPa 0,0 l/m 0 min 2 min 0,6 UV-I 243 W/m 12,9 km/h (3 Bft)
14.05.2013 12:30 12,6 C 11,2 C 69 % 1009,8 hPa 0,0 l/m 0 min 2 min 1,2 UV-I 304 W/m 23,2 km/h (4 Bft)
14.05.2013 12:32 12,3 C 11,2 C 70 % 1009,7 hPa 0,0 l/m 0 min 2 min 1,6 UV-I 364 W/m 15,4 km/h (3 Bft)
14.05.2013 12:34 12,1 C 11,8 C 72 % 1009,7 hPa 0,0 l/m 0 min 0 min 1,8 UV-I 406 W/m 10,3 km/h (2 Bft)
14.05.2013 12:36 12,1 C 12,3 C 72 % 1009,7 hPa 0,0 l/m 0 min 0 min 1,6 UV-I 360 W/m 12,9 km/h (3 Bft)
14.05.2013 12:38 12,2 C 12,9 C 73 % 1009,6 hPa 0,0 l/m 0 min 0 min 1,5 UV-I 339 W/m 7,7 km/h (2 Bft)
14.05.2013 12:40 12,2 C 12,9 C 72 % 1009,7 hPa 0,0 l/m 0 min 0 min 1,6 UV-I 387 W/m 10,3 km/h (2 Bft)
14.05.2013 12:42 12,3 C 12,9 C 72 % 1009,8 hPa 0,0 l/m 0 min 0 min 1,7 UV-I 369 W/m 15,4 km/h (3 Bft)
14.05.2013 12:44 12,4 C 13,4 C 72 % 1009,6 hPa 0,0 l/m 0 min 2 min 1,5 UV-I 320 W/m 18,0 km/h (3 Bft)
14.05.2013 12:46 12,6 C 13,4 C 73 % 1009,7 hPa 0,0 l/m 0 min 0 min 1,5 UV-I 341 W/m 10,3 km/h (2 Bft)
14.05.2013 12:48 12,7 C 13,4 C 72 % 1009,6 hPa 0,0 l/m 0 min 0 min 1,7 UV-I 369 W/m 10,3 km/h (2 Bft)
14.05.2013 12:50 12,7 C 13,4 C 70 % 1009,6 hPa 0,0 l/m 0 min 0 min 1,6 UV-I 388 W/m 15,4 km/h (3 Bft)
14.05.2013 12:52 12,7 C 14,0 C 70 % 1009,6 hPa 0,0 l/m 2 min 0 min 1,9 UV-I 508 W/m 15,4 km/h (3 Bft)
14.05.2013 12:54 12,8 C 14,6 C 68 % 1009,5 hPa 0,0 l/m 2 min 0 min 2,4 UV-I 570 W/m 15,4 km/h (3 Bft)
14.05.2013 12:56 12,9 C 15,1 C 66 % 1009,7 hPa 0,0 l/m 2 min 0 min 2,5 UV-I 624 W/m 18,0 km/h (3 Bft)
14.05.2013 12:58 13,0 C 15,1 C 67 % 1009,4 hPa 0,0 l/m 2 min 0 min 2,3 UV-I 526 W/m 12,9 km/h (3 Bft)
14.05.2013 13:00 13,1 C 15,1 C 66 % 1009,5 hPa 0,0 l/m 2 min 0 min 2,3 UV-I 534 W/m 12,9 km/h (3 Bft)
14.05.2013 13:02 13,3 C 15,7 C 66 % 1009,3 hPa 0,0 l/m 2 min 0 min 2,3 UV-I 559 W/m 10,3 km/h (2 Bft)
14.05.2013 13:04 13,3 C 15,1 C 65 % 1009,4 hPa 0,0 l/m 0 min 0 min 1,7 UV-I 380 W/m 20,6 km/h (4 Bft)
14.05.2013 13:06 13,2 C 14,6 C 65 % 1009,3 hPa 0,0 l/m 0 min 0 min 1,7 UV-I 392 W/m 15,4 km/h (3 Bft)
14.05.2013 13:08 13,2 C 14,6 C 66 % 1009,3 hPa 0,0 l/m 0 min 0 min 2,0 UV-I 445 W/m 10,3 km/h (2 Bft)
14.05.2013 13:10 13,1 C 14,6 C 65 % 1009,3 hPa 0,0 l/m 0 min 0 min 2,1 UV-I 454 W/m 10,3 km/h (2 Bft)
14.05.2013 13:12 13,2 C 14,6 C 67 % 1009,2 hPa 0,0 l/m 0 min 0 min 1,8 UV-I 387 W/m 7,7 km/h (2 Bft)
14.05.2013 13:14 13,2 C 14,0 C 67 % 1009,2 hPa 0,0 l/m 0 min 0 min 1,6 UV-I 341 W/m 18,0 km/h (3 Bft)
14.05.2013 13:16 13,2 C 14,0 C 66 % 1009,1 hPa 0,0 l/m 0 min 0 min 1,5 UV-I 350 W/m 5,1 km/h (1 Bft)
14.05.2013 13:18 13,3 C 14,6 C 67 % 1009,1 hPa 0,0 l/m 0 min 0 min 1,7 UV-I 401 W/m 0,0 km/h (0 Bft)
14.05.2013 13:20 13,3 C 14,6 C 65 % 1009,2 hPa 0,0 l/m 0 min 0 min 1,7 UV-I 376 W/m 25,7 km/h (4 Bft)
14.05.2013 13:22 13,3 C 14,6 C 66 % 1009,2 hPa 0,0 l/m 0 min 0 min 1,8 UV-I 396 W/m 15,4 km/h (3 Bft)
14.05.2013 13:24 13,4 C 14,6 C 68 % 1009,2 hPa 0,0 l/m 0 min 0 min 1,9 UV-I 404 W/m 2,6 km/h (1 Bft)
14.05.2013 13:26 13,5 C 15,1 C 67 % 1009,1 hPa 0,0 l/m 0 min 0 min 1,9 UV-I 418 W/m 18,0 km/h (3 Bft)
14.05.2013 13:28 13,3 C 14,6 C 65 % 1009,1 hPa 0,0 l/m 2 min 0 min 2,1 UV-I 520 W/m 18,0 km/h (3 Bft)
14.05.2013 13:30 13,2 C 14,6 C 65 % 1009,1 hPa 0,0 l/m 2 min 0 min 2,2 UV-I 527 W/m 12,9 km/h (3 Bft)
14.05.2013 13:32 13,3 C 15,1 C 65 % 1009,0 hPa 0,0 l/m 2 min 0 min 2,3 UV-I 540 W/m 12,9 km/h (3 Bft)
14.05.2013 13:34 13,3 C 15,1 C 65 % 1009,0 hPa 0,0 l/m 0 min 0 min 2,1 UV-I 425 W/m 12,9 km/h (3 Bft)
14.05.2013 13:36 13,4 C 15,1 C 66 % 1009,0 hPa 0,0 l/m 0 min 0 min 2,1 UV-I 434 W/m 10,3 km/h (2 Bft)
14.05.2013 13:38 13,5 C 15,1 C 65 % 1009,0 hPa 0,0 l/m 0 min 0 min 2,1 UV-I 420 W/m 5,1 km/h (1 Bft)
14.05.2013 13:40 13,6 C 15,1 C 66 % 1009,0 hPa 0,0 l/m 2 min 0 min 2,3 UV-I 570 W/m 12,9 km/h (3 Bft)
14.05.2013 13:42 13,7 C 15,7 C 67 % 1009,0 hPa 0,0 l/m 2 min 0 min 2,4 UV-I 564 W/m 15,4 km/h (3 Bft)
14.05.2013 13:44 13,8 C 15,7 C 65 % 1009,0 hPa 0,0 l/m 2 min 0 min 2,1 UV-I 459 W/m 15,4 km/h (3 Bft)
14.05.2013 13:46 13,9 C 15,7 C 64 % 1009,0 hPa 0,0 l/m 2 min 0 min 2,4 UV-I 550 W/m 10,3 km/h (2 Bft)
14.05.2013 13:48 14,0 C 15,7 C 64 % 1008,8 hPa 0,0 l/m 0 min 0 min 2,2 UV-I 446 W/m 5,1 km/h (1 Bft)
14.05.2013 13:50 14,0 C 15,7 C 64 % 1009,0 hPa 0,0 l/m 0 min 0 min 2,1 UV-I 415 W/m 10,3 km/h (2 Bft)
14.05.2013 13:52 14,0 C 15,1 C 63 % 1008,9 hPa 0,0 l/m 2 min 0 min 1,8 UV-I 492 W/m 23,2 km/h (4 Bft)
14.05.2013 13:54 13,8 C 15,1 C 65 % 1008,9 hPa 0,0 l/m 0 min 0 min 2,5 UV-I 425 W/m 7,7 km/h (2 Bft)
14.05.2013 13:56 13,8 C 15,1 C 64 % 1008,8 hPa 0,0 l/m 0 min 0 min 1,9 UV-I 404 W/m 18,0 km/h (3 Bft)
14.05.2013 13:58 13,7 C 15,1 C 63 % 1008,8 hPa 0,0 l/m 0 min 0 min 2,0 UV-I 418 W/m 7,7 km/h (2 Bft)
14.05.2013 14:00 13,8 C 14,6 C 64 % 1008,8 hPa 0,0 l/m 0 min 0 min 1,8 UV-I 366 W/m 25,7 km/h (4 Bft)
14.05.2013 14:02 13,7 C 14,6 C 64 % 1008,8 hPa 0,0 l/m 0 min 0 min 1,8 UV-I 417 W/m 20,6 km/h (4 Bft)
14.05.2013 14:04 13,7 C 14,6 C 66 % 1008,8 hPa 0,0 l/m 2 min 0 min 2,7 UV-I 621 W/m 15,4 km/h (3 Bft)
14.05.2013 14:06 13,8 C 15,1 C 65 % 1008,8 hPa 0,0 l/m 2 min 0 min 2,7 UV-I 589 W/m 15,4 km/h (3 Bft)
14.05.2013 14:08 14,0 C 15,7 C 65 % 1008,7 hPa 0,0 l/m 2 min 0 min 2,8 UV-I 605 W/m 15,4 km/h (3 Bft)
14.05.2013 14:10 14,0 C 15,7 C 63 % 1008,7 hPa 0,0 l/m 2 min 0 min 2,2 UV-I 596 W/m 20,6 km/h (4 Bft)
14.05.2013 14:12 14,0 C 15,1 C 62 % 1008,7 hPa 0,0 l/m 0 min 0 min 1,9 UV-I 381 W/m 15,4 km/h (3 Bft)
14.05.2013 14:14 14,0 C 15,1 C 62 % 1008,6 hPa 0,0 l/m 2 min 0 min 2,5 UV-I 536 W/m 20,6 km/h (4 Bft)
14.05.2013 14:16 14,0 C 15,1 C 63 % 1008,6 hPa 0,0 l/m 2 min 0 min 2,6 UV-I 561 W/m 28,3 km/h (4 Bft)
14.05.2013 14:18 14,0 C 15,1 C 63 % 1008,6 hPa 0,0 l/m 2 min 0 min 2,4 UV-I 534 W/m 23,2 km/h (4 Bft)
14.05.2013 14:20 14,0 C 15,1 C 64 % 1008,6 hPa 0,0 l/m 0 min 0 min 1,6 UV-I 318 W/m 10,3 km/h (2 Bft)
14.05.2013 14:22 14,0 C 14,6 C 63 % 1008,6 hPa 0,0 l/m 0 min 0 min 1,6 UV-I 343 W/m 7,7 km/h (2 Bft)
14.05.2013 14:24 13,8 C 14,6 C 63 % 1008,6 hPa 0,0 l/m 0 min 0 min 1,7 UV-I 366 W/m 10,3 km/h (2 Bft)
14.05.2013 14:26 13,8 C 14,6 C 64 % 1008,6 hPa 0,0 l/m 0 min 0 min 1,9 UV-I 381 W/m 20,6 km/h (4 Bft)
14.05.2013 14:28 13,9 C 15,1 C 64 % 1008,7 hPa 0,0 l/m 0 min 0 min 1,8 UV-I 362 W/m 10,3 km/h (2 Bft)
14.05.2013 14:30 13,8 C 14,6 C 65 % 1008,6 hPa 0,0 l/m 0 min 0 min 1,6 UV-I 353 W/m 15,4 km/h (3 Bft)
14.05.2013 14:32 13,8 C 14,6 C 65 % 1008,6 hPa 0,0 l/m 2 min 0 min 2,4 UV-I 591 W/m 7,7 km/h (2 Bft)
14.05.2013 14:34 13,9 C 15,1 C 65 % 1008,6 hPa 0,0 l/m 0 min 0 min 1,9 UV-I 411 W/m 0,0 km/h (0 Bft)
14.05.2013 14:36 14,0 C 15,1 C 64 % 1008,6 hPa 0,0 l/m 2 min 0 min 1,9 UV-I 497 W/m 12,9 km/h (3 Bft)
14.05.2013 14:38 13,8 C 15,1 C 63 % 1008,6 hPa 0,0 l/m 0 min 0 min 1,4 UV-I 320 W/m 12,9 km/h (3 Bft)
14.05.2013 14:40 13,7 C 14,6 C 63 % 1008,5 hPa 0,0 l/m 0 min 0 min 1,1 UV-I 283 W/m 5,1 km/h (1 Bft)
14.05.2013 14:42 13,6 C 14,6 C 64 % 1008,5 hPa 0,0 l/m 0 min 0 min 1,0 UV-I 276 W/m 0,0 km/h (0 Bft)
14.05.2013 14:44 13,5 C 14,0 C 64 % 1008,5 hPa 0,0 l/m 0 min 0 min 0,9 UV-I 250 W/m 10,3 km/h (2 Bft)
14.05.2013 14:46 13,6 C 14,0 C 65 % 1008,4 hPa 0,0 l/m 0 min 0 min 1,1 UV-I 336 W/m 7,7 km/h (2 Bft)
14.05.2013 14:48 13,6 C 14,6 C 65 % 1008,4 hPa 0,0 l/m 0 min 0 min 1,1 UV-I 431 W/m 5,1 km/h (1 Bft)
14.05.2013 14:50 13,6 C 14,0 C 64 % 1008,4 hPa 0,0 l/m 0 min 0 min 0,9 UV-I 251 W/m 12,9 km/h (3 Bft)
14.05.2013 14:52 13,7 C 14,0 C 65 % 1008,4 hPa 0,0 l/m 0 min 0 min 0,7 UV-I 216 W/m 2,6 km/h (1 Bft)
14.05.2013 14:54 13,6 C 14,0 C 65 % 1008,3 hPa 0,0 l/m 0 min 0 min 0,0 UV-I 160 W/m 7,7 km/h (2 Bft)
14.05.2013 14:56 13,6 C 13,4 C 66 % 1008,4 hPa 0,0 l/m 0 min 0 min 0,0 UV-I 137 W/m 7,7 km/h (2 Bft)
14.05.2013 14:58 13,5 C 13,4 C 65 % 1008,3 hPa 0,0 l/m 0 min 0 min 0,0 UV-I 123 W/m 7,7 km/h (2 Bft)
14.05.2013 15:00 13,4 C 12,9 C 65 % 1008,2 hPa 0,0 l/m 0 min 0 min 0,0 UV-I 114 W/m 7,7 km/h (2 Bft)
14.05.2013 15:02 13,3 C 12,9 C 64 % 1008,3 hPa 0,0 l/m 0 min 0 min 0,0 UV-I 146 W/m 7,7 km/h (2 Bft)
14.05.2013 15:04 13,2 C 12,9 C 65 % 1008,3 hPa 0,0 l/m 0 min 0 min 0,7 UV-I 239 W/m 7,7 km/h (2 Bft)
14.05.2013 15:06 13,2 C 13,4 C 67 % 1008,2 hPa 0,0 l/m 2 min 0 min 1,7 UV-I 452 W/m 5,1 km/h (1 Bft)
14.05.2013 15:08 13,3 C 14,6 C 67 % 1008,2 hPa 0,0 l/m 0 min 0 min 1,6 UV-I 392 W/m 2,6 km/h (1 Bft)
14.05.2013 15:10 13,6 C 14,6 C 67 % 1008,2 hPa 0,0 l/m 0 min 0 min 1,5 UV-I 350 W/m 10,3 km/h (2 Bft)
14.05.2013 15:12 13,7 C 14,6 C 65 % 1008,2 hPa 0,0 l/m 0 min 0 min 1,5 UV-I 327 W/m 7,7 km/h (2 Bft)
14.05.2013 15:14 13,7 C 14,6 C 65 % 1008,3 hPa 0,0 l/m 0 min 0 min 1,2 UV-I 283 W/m 10,3 km/h (2 Bft)
14.05.2013 15:16 13,6 C 14,6 C 66 % 1008,3 hPa 0,0 l/m 0 min 0 min 1,0 UV-I 257 W/m 10,3 km/h (2 Bft)
14.05.2013 15:18 13,6 C 14,0 C 66 % 1008,2 hPa 0,0 l/m 0 min 0 min 0,8 UV-I 220 W/m 7,7 km/h (2 Bft)
14.05.2013 15:20 13,7 C 14,0 C 66 % 1008,2 hPa 0,0 l/m 0 min 0 min 0,6 UV-I 195 W/m 7,7 km/h (2 Bft)
14.05.2013 15:22 13,6 C 14,0 C 66 % 1008,2 hPa 0,0 l/m 0 min 0 min 0,0 UV-I 171 W/m 12,9 km/h (3 Bft)
14.05.2013 15:24 13,5 C 13,4 C 66 % 1008,1 hPa 0,0 l/m 0 min 0 min 0,0 UV-I 141 W/m 7,7 km/h (2 Bft)
14.05.2013 15:26 13,4 C 13,4 C 67 % 1008,1 hPa 0,0 l/m 0 min 0 min 0,0 UV-I 135 W/m 0,0 km/h (0 Bft)
14.05.2013 15:28 13,4 C 13,4 C 66 % 1008,1 hPa 0,0 l/m 0 min 0 min 0,0 UV-I 158 W/m 0,0 km/h (0 Bft)
14.05.2013 15:30 13,4 C 13,4 C 67 % 1008,1 hPa 0,0 l/m 0 min 0 min 0,0 UV-I 155 W/m 0,0 km/h (0 Bft)
14.05.2013 15:32 13,4 C 13,4 C 67 % 1008,0 hPa 0,0 l/m 0 min 0 min 0,0 UV-I 146 W/m 0,0 km/h (0 Bft)
14.05.2013 15:34 13,4 C 13,4 C 66 % 1008,0 hPa 0,0 l/m 0 min 0 min 0,0 UV-I 156 W/m 7,7 km/h (2 Bft)
14.05.2013 15:36 13,4 C 13,4 C 66 % 1008,0 hPa 0,0 l/m 0 min 0 min 0,0 UV-I 204 W/m 2,6 km/h (1 Bft)
14.05.2013 15:38 13,4 C 13,4 C 65 % 1007,9 hPa 0,0 l/m 0 min 0 min 0,7 UV-I 236 W/m 7,7 km/h (2 Bft)
14.05.2013 15:40 13,4 C 14,0 C 67 % 1008,0 hPa 0,0 l/m 0 min 0 min 0,7 UV-I 239 W/m 0,0 km/h (0 Bft)
14.05.2013 15:42 13,5 C 14,0 C 67 % 1007,9 hPa 0,0 l/m 0 min 0 min 0,7 UV-I 225 W/m 0,0 km/h (0 Bft)
14.05.2013 15:44 13,6 C 14,0 C 68 % 1007,9 hPa 0,0 l/m 0 min 0 min 0,7 UV-I 234 W/m 2,6 km/h (1 Bft)
14.05.2013 15:46 13,7 C 14,0 C 66 % 1007,9 hPa 0,0 l/m 0 min 0 min 0,6 UV-I 209 W/m 10,3 km/h (2 Bft)
14.05.2013 15:48 13,7 C 14,0 C 67 % 1007,8 hPa 0,0 l/m 0 min 0 min 0,0 UV-I 160 W/m 5,1 km/h (1 Bft)
14.05.2013 15:50 13,7 C 14,0 C 66 % 1007,8 hPa 0,0 l/m 0 min 0 min 0,0 UV-I 142 W/m 0,0 km/h (0 Bft)
14.05.2013 15:52 13,7 C 13,4 C 66 % 1007,8 hPa 0,0 l/m 0 min 0 min 0,0 UV-I 125 W/m 2,6 km/h (1 Bft)
14.05.2013 15:54 13,6 C 13,4 C 66 % 1007,8 hPa 0,0 l/m 0 min 0 min 0,0 UV-I 113 W/m 2,6 km/h (1 Bft)
14.05.2013 15:56 13,4 C 12,9 C 65 % 1007,8 hPa 0,0 l/m 0 min 0 min 0,0 UV-I 113 W/m 5,1 km/h (1 Bft)
14.05.2013 15:58 13,3 C 12,9 C 66 % 1007,8 hPa 0,0 l/m 0 min 0 min 0,0 UV-I 120 W/m 2,6 km/h (1 Bft)
14.05.2013 16:00 13,2 C 12,9 C 66 % 1007,8 hPa 0,0 l/m 0 min 0 min 0,0 UV-I 130 W/m 5,1 km/h (1 Bft)
14.05.2013 16:02 13,2 C 12,9 C 68 % 1007,7 hPa 0,0 l/m 0 min 0 min 0,0 UV-I 137 W/m 0,0 km/h (0 Bft)
14.05.2013 16:04 13,1 C 12,9 C 66 % 1007,7 hPa 0,0 l/m 0 min 0 min 0,0 UV-I 141 W/m 7,7 km/h (2 Bft)
14.05.2013 16:06 13,1 C 12,3 C 65 % 1007,7 hPa 0,0 l/m 0 min 0 min 0,0 UV-I 181 W/m 12,9 km/h (3 Bft)
14.05.2013 16:08 13,1 C 12,9 C 66 % 1007,7 hPa 0,0 l/m 0 min 0 min 0,0 UV-I 207 W/m 10,3 km/h (2 Bft)
14.05.2013 16:10 13,1 C 12,9 C 67 % 1007,7 hPa 0,0 l/m 0 min 0 min 0,5 UV-I 229 W/m 2,6 km/h (1 Bft)
14.05.2013 16:12 13,2 C 13,4 C 67 % 1007,7 hPa 0,0 l/m 0 min 0 min 0,7 UV-I 257 W/m 0,0 km/h (0 Bft)
14.05.2013 16:14 13,3 C 13,4 C 66 % 1007,7 hPa 0,0 l/m 0 min 0 min 0,8 UV-I 285 W/m 10,3 km/h (2 Bft)
14.05.2013 16:16 13,3 C 13,4 C 66 % 1007,7 hPa 0,0 l/m 0 min 0 min 0,9 UV-I 318 W/m 10,3 km/h (2 Bft)
14.05.2013 16:18 13,4 C 14,0 C 67 % 1007,6 hPa 0,0 l/m 0 min 0 min 1,0 UV-I 315 W/m 5,1 km/h (1 Bft)
14.05.2013 16:20 13,6 C 14,0 C 68 % 1007,6 hPa 0,0 l/m 0 min 0 min 0,9 UV-I 313 W/m 10,3 km/h (2 Bft)
14.05.2013 16:22 13,7 C 14,6 C 66 % 1007,6 hPa 0,0 l/m 0 min 0 min 0,9 UV-I 299 W/m 0,0 km/h (0 Bft)
14.05.2013 16:24 13,8 C 14,6 C 67 % 1007,6 hPa 0,0 l/m 0 min 0 min 0,8 UV-I 285 W/m 0,0 km/h (0 Bft)
14.05.2013 16:26 14,0 C 14,6 C 70 % 1007,5 hPa 0,0 l/m 0 min 0 min 0,7 UV-I 276 W/m 0,0 km/h (0 Bft)
14.05.2013 16:28 14,0 C 14,6 C 65 % 1007,5 hPa 0,0 l/m 0 min 0 min 0,7 UV-I 265 W/m 10,3 km/h (2 Bft)
14.05.2013 16:30 14,0 C 14,6 C 64 % 1007,5 hPa 0,0 l/m 0 min 0 min 0,6 UV-I 262 W/m 5,1 km/h (1 Bft)
14.05.2013 16:32 14,0 C 14,6 C 65 % 1007,5 hPa 0,0 l/m 0 min 0 min 0,6 UV-I 258 W/m 5,1 km/h (1 Bft)
14.05.2013 16:34 14,0 C 14,6 C 65 % 1007,4 hPa 0,0 l/m 0 min 0 min 0,6 UV-I 255 W/m 7,7 km/h (2 Bft)
14.05.2013 16:36 14,0 C 14,0 C 65 % 1007,4 hPa 0,0 l/m 0 min 0 min 0,6 UV-I 246 W/m 7,7 km/h (2 Bft)
14.05.2013 16:38 13,9 C 14,6 C 66 % 1007,4 hPa 0,0 l/m 0 min 0 min 0,5 UV-I 232 W/m 2,6 km/h (1 Bft)
14.05.2013 16:40 13,9 C 14,0 C 65 % 1007,3 hPa 0,0 l/m 0 min 0 min 0,0 UV-I 214 W/m 10,3 km/h (2 Bft)
14.05.2013 16:42 13,9 C 14,0 C 66 % 1007,3 hPa 0,0 l/m 0 min 0 min 0,0 UV-I 204 W/m 15,4 km/h (3 Bft)
14.05.2013 16:44 13,8 C 14,0 C 64 % 1007,4 hPa 0,0 l/m 0 min 0 min 0,0 UV-I 193 W/m 7,7 km/h (2 Bft)
14.05.2013 16:46 13,8 C 13,4 C 64 % 1007,4 hPa 0,0 l/m 0 min 0 min 0,0 UV-I 179 W/m 7,7 km/h (2 Bft)
14.05.2013 16:48 13,8 C 13,4 C 65 % 1007,4 hPa 0,0 l/m 0 min 0 min 0,0 UV-I 185 W/m 2,6 km/h (1 Bft)
14.05.2013 16:50 13,7 C 13,4 C 64 % 1007,6 hPa 0,0 l/m 0 min 2 min 0,0 UV-I 190 W/m 20,6 km/h (4 Bft)
14.05.2013 16:52 13,6 C 12,9 C 65 % 1007,4 hPa 0,0 l/m 0 min 2 min 0,0 UV-I 144 W/m 7,7 km/h (2 Bft)
14.05.2013 16:54 13,6 C 12,9 C 66 % 1007,4 hPa 0,0 l/m 0 min 2 min 0,0 UV-I 121 W/m 10,3 km/h (2 Bft)
14.05.2013 16:56 13,4 C 12,3 C 66 % 1007,3 hPa 0,0 l/m 0 min 2 min 0,0 UV-I 113 W/m 15,4 km/h (3 Bft)
14.05.2013 16:58 13,3 C 11,8 C 67 % 1007,5 hPa 0,0 l/m 0 min 2 min 0,0 UV-I 95 W/m 12,9 km/h (3 Bft)
14.05.2013 17:00 13,1 C 11,2 C 67 % 1007,4 hPa 0,0 l/m 0 min 2 min 0,0 UV-I 95 W/m 12,9 km/h (3 Bft)
14.05.2013 17:02 12,9 C 10,7 C 68 % 1007,3 hPa 0,0 l/m 0 min 2 min 0,0 UV-I 109 W/m 23,2 km/h (4 Bft)
14.05.2013 17:04 12,8 C 11,2 C 68 % 1007,4 hPa 0,0 l/m 0 min 2 min 0,0 UV-I 120 W/m 12,9 km/h (3 Bft)
14.05.2013 17:06 12,7 C 11,2 C 69 % 1007,4 hPa 0,0 l/m 0 min 2 min 0,0 UV-I 118 W/m 5,1 km/h (1 Bft)
14.05.2013 17:08 12,7 C 11,2 C 71 % 1007,4 hPa 0,0 l/m 0 min 2 min 0,0 UV-I 114 W/m 5,1 km/h (1 Bft)
14.05.2013 17:10 12,6 C 11,2 C 72 % 1007,4 hPa 0,0 l/m 0 min 2 min 0,0 UV-I 105 W/m 7,7 km/h (2 Bft)
14.05.2013 17:12 12,4 C 10,7 C 72 % 1007,4 hPa 0,0 l/m 0 min 2 min 0,0 UV-I 98 W/m 5,1 km/h (1 Bft)
14.05.2013 17:14 12,3 C 10,7 C 73 % 1007,5 hPa 0,0 l/m 0 min 2 min 0,0 UV-I 91 W/m 10,3 km/h (2 Bft)
14.05.2013 17:16 12,3 C 10,1 C 74 % 1007,4 hPa 0,0 l/m 0 min 2 min 0,0 UV-I 98 W/m 7,7 km/h (2 Bft)
14.05.2013 17:18 12,2 C 10,1 C 75 % 1007,4 hPa 0,0 l/m 0 min 2 min 0,0 UV-I 111 W/m 10,3 km/h (2 Bft)
14.05.2013 17:20 12,1 C 10,1 C 75 % 1007,4 hPa 0,0 l/m 0 min 2 min 0,0 UV-I 123 W/m 5,1 km/h (1 Bft)
14.05.2013 17:22 12,0 C 10,1 C 75 % 1007,4 hPa 0,0 l/m 0 min 2 min 0,0 UV-I 134 W/m 10,3 km/h (2 Bft)
14.05.2013 17:24 11,9 C 10,1 C 77 % 1007,4 hPa 0,0 l/m 0 min 2 min 0,0 UV-I 134 W/m 7,7 km/h (2 Bft)
14.05.2013 17:26 11,9 C 10,1 C 77 % 1007,4 hPa 0,0 l/m 0 min 2 min 0,0 UV-I 130 W/m 5,1 km/h (1 Bft)
14.05.2013 17:28 11,8 C 10,1 C 78 % 1007,3 hPa 0,0 l/m 0 min 2 min 0,0 UV-I 121 W/m 7,7 km/h (2 Bft)
14.05.2013 17:30 11,7 C 10,1 C 79 % 1007,4 hPa 0,0 l/m 0 min 2 min 0,0 UV-I 118 W/m 5,1 km/h (1 Bft)
14.05.2013 17:32 11,7 C 10,1 C 80 % 1007,4 hPa 0,0 l/m 0 min 2 min 0,0 UV-I 123 W/m 0,0 km/h (0 Bft)
14.05.2013 17:34 11,7 C 10,1 C 82 % 1007,5 hPa 0,0 l/m 0 min 2 min 0,0 UV-I 134 W/m 0,0 km/h (0 Bft)
14.05.2013 17:36 11,6 C 10,1 C 82 % 1007,4 hPa 0,0 l/m 0 min 2 min 0,0 UV-I 141 W/m 7,7 km/h (2 Bft)
14.05.2013 17:38 11,5 C 10,1 C 81 % 1007,4 hPa 0,0 l/m 0 min 2 min 0,0 UV-I 137 W/m 0,0 km/h (0 Bft)
14.05.2013 17:40 11,4 C 9,6 C 82 % 1007,3 hPa 0,0 l/m 0 min 2 min 0,0 UV-I 130 W/m 0,0 km/h (0 Bft)
14.05.2013 17:42 11,4 C 9,6 C 82 % 1007,3 hPa 0,0 l/m 0 min 2 min 0,0 UV-I 127 W/m 2,6 km/h (1 Bft)
14.05.2013 17:44 11,4 C 9,6 C 83 % 1007,3 hPa 0,0 l/m 0 min 2 min 0,0 UV-I 141 W/m 0,0 km/h (0 Bft)
14.05.2013 17:46 11,3 C 9,6 C 83 % 1007,3 hPa 0,0 l/m 0 min 2 min 0,0 UV-I 146 W/m 2,6 km/h (1 Bft)
14.05.2013 17:48 11,3 C 9,6 C 83 % 1007,3 hPa 0,0 l/m 0 min 2 min 0,0 UV-I 155 W/m 0,0 km/h (0 Bft)
14.05.2013 17:50 11,3 C 10,1 C 84 % 1007,2 hPa 0,0 l/m 0 min 2 min 0,0 UV-I 151 W/m 0,0 km/h (0 Bft)
14.05.2013 17:52 11,3 C 10,1 C 84 % 1007,3 hPa 0,0 l/m 0 min 2 min 0,0 UV-I 141 W/m 0,0 km/h (0 Bft)
14.05.2013 17:54 11,3 C 10,1 C 84 % 1007,3 hPa 0,2 l/m 0 min 2 min 0,0 UV-I 132 W/m 0,0 km/h (0 Bft)
14.05.2013 17:56 11,4 C 10,1 C 85 % 1007,2 hPa 0,0 l/m 0 min 0 min 0,0 UV-I 102 W/m 0,0 km/h (0 Bft)
14.05.2013 17:58 11,3 C 10,1 C 85 % 1007,2 hPa 0,0 l/m 0 min 2 min 0,0 UV-I 84 W/m 0,0 km/h (0 Bft)
14.05.2013 18:00 11,3 C 10,1 C 85 % 1007,2 hPa 0,0 l/m 0 min 2 min 0,0 UV-I 76 W/m 0,0 km/h (0 Bft)
14.05.2013 18:02 11,3 C 9,6 C 85 % 1007,2 hPa 0,0 l/m 0 min 2 min 0,0 UV-I 81 W/m 0,0 km/h (0 Bft)
14.05.2013 18:04 11,3 C 10,1 C 85 % 1007,3 hPa 0,0 l/m 0 min 2 min 0,0 UV-I 86 W/m 0,0 km/h (0 Bft)
14.05.2013 18:06 11,3 C 10,1 C 86 % 1007,2 hPa 0,0 l/m 0 min 2 min 0,0 UV-I 84 W/m 0,0 km/h (0 Bft)
14.05.2013 18:08 11,3 C 10,1 C 87 % 1007,3 hPa 0,0 l/m 0 min 2 min 0,0 UV-I 90 W/m 0,0 km/h (0 Bft)
14.05.2013 18:10 11,3 C 9,6 C 87 % 1007,2 hPa 0,0 l/m 0 min 2 min 0,0 UV-I 95 W/m 0,0 km/h (0 Bft)
14.05.2013 18:12 11,2 C 9,6 C 86 % 1007,2 hPa 0,0 l/m 0 min 2 min 0,0 UV-I 97 W/m 0,0 km/h (0 Bft)
14.05.2013 18:14 11,2 C 9,6 C 86 % 1007,2 hPa 0,0 l/m 0 min 2 min 0,0 UV-I 105 W/m 0,0 km/h (0 Bft)
14.05.2013 18:16 11,1 C 9,6 C 86 % 1007,2 hPa 0,0 l/m 0 min 2 min 0,0 UV-I 118 W/m 5,1 km/h (1 Bft)
14.05.2013 18:18 11,1 C 9,6 C 86 % 1007,1 hPa 0,0 l/m 0 min 2 min 0,0 UV-I 113 W/m 7,7 km/h (2 Bft)
14.05.2013 18:20 11,1 C 9,6 C 86 % 1007,1 hPa 0,0 l/m 0 min 2 min 0,0 UV-I 81 W/m 0,0 km/h (0 Bft)
14.05.2013 18:22 11,1 C 9,6 C 86 % 1007,0 hPa 0,0 l/m 0 min 2 min 0,0 UV-I 72 W/m 5,1 km/h (1 Bft)
14.05.2013 18:24 11,0 C 9,6 C 86 % 1006,9 hPa 0,0 l/m 0 min 2 min 0,0 UV-I 76 W/m 2,6 km/h (1 Bft)
14.05.2013 18:26 11,0 C 9,6 C 86 % 1007,0 hPa 0,0 l/m 0 min 2 min 0,0 UV-I 95 W/m 0,0 km/h (0 Bft)
14.05.2013 18:28 10,9 C 9,0 C 86 % 1006,9 hPa 0,0 l/m 0 min 2 min 0,0 UV-I 100 W/m 0,0 km/h (0 Bft)
14.05.2013 18:30 10,9 C 9,6 C 87 % 1006,9 hPa 0,0 l/m 0 min 2 min 0,0 UV-I 102 W/m 2,6 km/h (1 Bft)
14.05.2013 18:32 10,9 C 9,0 C 87 % 1006,8 hPa 0,0 l/m 0 min 2 min 0,0 UV-I 91 W/m 0,0 km/h (0 Bft)
14.05.2013 18:34 10,8 C 9,6 C 87 % 1006,8 hPa 0,0 l/m 0 min 2 min 0,0 UV-I 77 W/m 0,0 km/h (0 Bft)
14.05.2013 18:36 10,8 C 9,0 C 87 % 1006,8 hPa 0,0 l/m 0 min 2 min 0,0 UV-I 69 W/m 0,0 km/h (0 Bft)
14.05.2013 18:38 10,8 C 9,0 C 87 % 1006,7 hPa 0,0 l/m 0 min 2 min 0,0 UV-I 69 W/m 0,0 km/h (0 Bft)
14.05.2013 18:40 10,8 C 9,0 C 88 % 1006,6 hPa 0,0 l/m 0 min 2 min 0,0 UV-I 72 W/m 0,0 km/h (0 Bft)
14.05.2013 18:42 10,7 C 9,0 C 87 % 1006,6 hPa 0,0 l/m 0 min 2 min 0,0 UV-I 79 W/m 0,0 km/h (0 Bft)
14.05.2013 18:44 10,8 C 9,0 C 88 % 1006,6 hPa 0,0 l/m 0 min 2 min 0,0 UV-I 76 W/m 0,0 km/h (0 Bft)
14.05.2013 18:46 10,8 C 9,0 C 89 % 1006,6 hPa 0,0 l/m 0 min 2 min 0,0 UV-I 69 W/m 0,0 km/h (0 Bft)
14.05.2013 18:48 10,7 C 9,0 C 88 % 1006,6 hPa 0,0 l/m 0 min 2 min 0,0 UV-I 62 W/m 2,6 km/h (1 Bft)
14.05.2013 18:50 10,7 C 9,0 C 88 % 1006,6 hPa 0,0 l/m 0 min 2 min 0,0 UV-I 63 W/m 0,0 km/h (0 Bft)
14.05.2013 18:52 10,7 C 9,0 C 88 % 1006,6 hPa 0,0 l/m 0 min 2 min 0,0 UV-I 77 W/m 0,0 km/h (0 Bft)
14.05.2013 18:54 10,7 C 9,0 C 88 % 1006,5 hPa 0,0 l/m 0 min 2 min 0,0 UV-I 100 W/m 0,0 km/h (0 Bft)
14.05.2013 18:56 10,7 C 9,0 C 89 % 1006,4 hPa 0,0 l/m 0 min 2 min 0,0 UV-I 105 W/m 0,0 km/h (0 Bft)
14.05.2013 18:58 10,7 C 9,0 C 88 % 1006,4 hPa 0,0 l/m 0 min 2 min 0,0 UV-I 104 W/m 0,0 km/h (0 Bft)
14.05.2013 19:00 10,7 C 9,0 C 88 % 1006,4 hPa 0,0 l/m 0 min 2 min 0,0 UV-I 93 W/m 0,0 km/h (0 Bft)
14.05.2013 19:02 10,7 C 9,6 C 88 % 1006,4 hPa 0,0 l/m 0 min 0 min 0,0 UV-I 90 W/m 0,0 km/h (0 Bft)
14.05.2013 19:04 10,7 C 9,6 C 89 % 1006,4 hPa 0,0 l/m 0 min 0 min 0,0 UV-I 90 W/m 0,0 km/h (0 Bft)
14.05.2013 19:06 10,8 C 9,6 C 89 % 1006,4 hPa 0,0 l/m 0 min 2 min 0,0 UV-I 97 W/m 0,0 km/h (0 Bft)
14.05.2013 19:08 10,8 C 9,6 C 89 % 1006,3 hPa 0,0 l/m 0 min 2 min 0,0 UV-I 98 W/m 5,1 km/h (1 Bft)
14.05.2013 19:10 10,8 C 9,6 C 89 % 1006,3 hPa 0,0 l/m 0 min 2 min 0,0 UV-I 95 W/m 2,6 km/h (1 Bft)
14.05.2013 19:12 10,7 C 9,6 C 89 % 1006,2 hPa 0,0 l/m 0 min 2 min 0,0 UV-I 88 W/m 0,0 km/h (0 Bft)
14.05.2013 19:14 10,8 C 9,6 C 88 % 1006,1 hPa 0,0 l/m 0 min 2 min 0,0 UV-I 86 W/m 0,0 km/h (0 Bft)
14.05.2013 19:16 10,7 C 9,6 C 89 % 1006,1 hPa 0,0 l/m 0 min 2 min 0,0 UV-I 83 W/m 0,0 km/h (0 Bft)
14.05.2013 19:18 10,7 C 9,6 C 89 % 1006,2 hPa 0,0 l/m 0 min 2 min 0,0 UV-I 79 W/m 0,0 km/h (0 Bft)
14.05.2013 19:20 10,8 C 9,6 C 89 % 1006,2 hPa 0,0 l/m 0 min 0 min 0,0 UV-I 81 W/m 0,0 km/h (0 Bft)
14.05.2013 19:22 10,8 C 9,6 C 89 % 1006,2 hPa 0,0 l/m 0 min 0 min 0,0 UV-I 88 W/m 0,0 km/h (0 Bft)
14.05.2013 19:24 10,8 C 9,6 C 89 % 1006,2 hPa 0,0 l/m 0 min 2 min 0,0 UV-I 97 W/m 0,0 km/h (0 Bft)
14.05.2013 19:26 10,8 C 9,6 C 89 % 1006,3 hPa 0,0 l/m 0 min 2 min 0,0 UV-I 86 W/m 2,6 km/h (1 Bft)
14.05.2013 19:28 10,8 C 9,6 C 89 % 1006,1 hPa 0,0 l/m 0 min 2 min 0,0 UV-I 76 W/m 0,0 km/h (0 Bft)
14.05.2013 19:30 10,9 C 9,6 C 89 % 1006,1 hPa 0,0 l/m 0 min 2 min 0,0 UV-I 67 W/m 0,0 km/h (0 Bft)
14.05.2013 19:32 10,9 C 9,6 C 89 % 1006,1 hPa 0,0 l/m 0 min 2 min 0,0 UV-I 70 W/m 0,0 km/h (0 Bft)
14.05.2013 19:34 10,9 C 9,6 C 89 % 1006,1 hPa 0,2 l/m 0 min 2 min 0,0 UV-I 81 W/m 0,0 km/h (0 Bft)
14.05.2013 19:36 10,9 C 9,6 C 89 % 1006,0 hPa 0,0 l/m 0 min 2 min 0,0 UV-I 83 W/m 0,0 km/h (0 Bft)
14.05.2013 19:38 10,9 C 9,6 C 88 % 1006,0 hPa 0,0 l/m 0 min 2 min 0,0 UV-I 79 W/m 0,0 km/h (0 Bft)
14.05.2013 19:40 10,9 C 9,6 C 88 % 1005,9 hPa 0,0 l/m 0 min 2 min 0,0 UV-I 77 W/m 0,0 km/h (0 Bft)
14.05.2013 19:42 10,9 C 9,0 C 88 % 1005,9 hPa 0,0 l/m 0 min 0 min 0,0 UV-I 76 W/m 0,0 km/h (0 Bft)
14.05.2013 19:44 11,0 C 9,6 C 88 % 1005,9 hPa 0,0 l/m 0 min 2 min 0,0 UV-I 81 W/m 5,1 km/h (1 Bft)
14.05.2013 19:46 11,0 C 9,6 C 88 % 1005,9 hPa 0,0 l/m 0 min 2 min 0,0 UV-I 83 W/m 5,1 km/h (1 Bft)
14.05.2013 19:48 11,0 C 9,6 C 88 % 1005,8 hPa 0,0 l/m 0 min 2 min 0,0 UV-I 77 W/m 0,0 km/h (0 Bft)
14.05.2013 19:50 11,0 C 9,6 C 88 % 1005,7 hPa 0,0 l/m 0 min 2 min 0,0 UV-I 69 W/m 2,6 km/h (1 Bft)
14.05.2013 19:52 11,0 C 9,6 C 88 % 1005,8 hPa 0,0 l/m 0 min 2 min 0,0 UV-I 62 W/m 0,0 km/h (0 Bft)
14.05.2013 19:54 11,0 C 9,0 C 88 % 1005,8 hPa 0,0 l/m 0 min 2 min 0,0 UV-I 56 W/m 5,1 km/h (1 Bft)
14.05.2013 19:56 11,0 C 9,0 C 88 % 1005,7 hPa 0,0 l/m 0 min 0 min 0,0 UV-I 49 W/m 2,6 km/h (1 Bft)
14.05.2013 19:58 11,0 C 9,0 C 88 % 1005,7 hPa 0,0 l/m 0 min 0 min 0,0 UV-I 42 W/m 0,0 km/h (0 Bft)
14.05.2013 20:00 11,0 C 9,0 C 88 % 1005,6 hPa 0,0 l/m 0 min 0 min 0,0 UV-I 30 W/m 7,7 km/h (2 Bft)
14.05.2013 20:02 11,0 C 9,0 C 88 % 1005,7 hPa 0,0 l/m 0 min 0 min 0,0 UV-I 25 W/m 5,1 km/h (1 Bft)
14.05.2013 20:04 11,0 C 9,0 C 88 % 1005,7 hPa 0,0 l/m 0 min 0 min 0,0 UV-I 21 W/m 2,6 km/h (1 Bft)
14.05.2013 20:06 10,9 C 9,0 C 88 % 1005,6 hPa 0,0 l/m 0 min 0 min 0,0 UV-I 19 W/m 2,6 km/h (1 Bft)
14.05.2013 20:08 10,9 C 9,0 C 88 % 1005,6 hPa 0,0 l/m 0 min 2 min 0,0 UV-I 19 W/m 2,6 km/h (1 Bft)
14.05.2013 20:10 10,9 C 9,0 C 88 % 1005,6 hPa 0,0 l/m 0 min 0 min 0,0 UV-I 19 W/m 0,0 km/h (0 Bft)
14.05.2013 20:12 10,9 C 9,0 C 88 % 1005,5 hPa 0,0 l/m 0 min 0 min 0,0 UV-I 19 W/m 0,0 km/h (0 Bft)
14.05.2013 20:14 10,9 C 9,0 C 88 % 1005,5 hPa 0,0 l/m 0 min 0 min 0,0 UV-I 18 W/m 0,0 km/h (0 Bft)
14.05.2013 20:16 10,8 C 9,0 C 88 % 1005,5 hPa 0,0 l/m 0 min 0 min 0,0 UV-I 16 W/m 0,0 km/h (0 Bft)
14.05.2013 20:18 10,8 C 9,0 C 88 % 1005,5 hPa 0,0 l/m 0 min 0 min 0,0 UV-I 14 W/m 2,6 km/h (1 Bft)
14.05.2013 20:20 10,8 C 9,0 C 88 % 1005,4 hPa 0,0 l/m 0 min 0 min 0,0 UV-I 14 W/m 5,1 km/h (1 Bft)
14.05.2013 20:22 10,8 C 9,0 C 88 % 1005,4 hPa 0,0 l/m 0 min 0 min 0,0 UV-I 12 W/m 2,6 km/h (1 Bft)
14.05.2013 20:24 10,8 C 9,0 C 88 % 1005,4 hPa 0,0 l/m 0 min 0 min 0,0 UV-I 12 W/m 0,0 km/h (0 Bft)
14.05.2013 20:26 10,7 C 9,0 C 88 % 1005,4 hPa 0,0 l/m 0 min 0 min 0,0 UV-I 12 W/m 0,0 km/h (0 Bft)
14.05.2013 20:28 10,7 C 9,0 C 88 % 1005,3 hPa 0,0 l/m 0 min 0 min 0,0 UV-I 12 W/m 2,6 km/h (1 Bft)
14.05.2013 20:30 10,7 C 9,0 C 88 % 1005,2 hPa 0,0 l/m 0 min 0 min 0,0 UV-I 11 W/m 2,6 km/h (1 Bft)
14.05.2013 20:32 10,7 C 9,0 C 88 % 1005,2 hPa 0,0 l/m 0 min 0 min 0,0 UV-I 11 W/m 2,6 km/h (1 Bft)
14.05.2013 20:34 10,6 C 9,0 C 88 % 1005,2 hPa 0,0 l/m 0 min 0 min 0,0 UV-I 11 W/m 0,0 km/h (0 Bft)
14.05.2013 20:36 10,6 C 9,0 C 89 % 1005,2 hPa 0,0 l/m 0 min 0 min 0,0 UV-I 12 W/m 5,1 km/h (1 Bft)
14.05.2013 20:38 10,6 C 9,0 C 89 % 1005,0 hPa 0,0 l/m 0 min 0 min 0,0 UV-I 12 W/m 5,1 km/h (1 Bft)
14.05.2013 20:40 10,6 C 9,0 C 89 % 1005,1 hPa 0,0 l/m 0 min 0 min 0,0 UV-I 9 W/m 2,6 km/h (1 Bft)
14.05.2013 20:42 10,6 C 9,0 C 89 % 1005,0 hPa 0,0 l/m 0 min 0 min 0,0 UV-I 9 W/m 5,1 km/h (1 Bft)
14.05.2013 20:44 10,5 C 9,0 C 89 % 1005,0 hPa 0,0 l/m 0 min 0 min 0,0 UV-I 9 W/m 5,1 km/h (1 Bft)
14.05.2013 20:46 10,5 C 9,0 C 89 % 1005,0 hPa 0,0 l/m 0 min 0 min 0,0 UV-I 11 W/m 5,1 km/h (1 Bft)
14.05.2013 20:48 10,5 C 9,0 C 89 % 1005,0 hPa 0,0 l/m 0 min 0 min 0,0 UV-I 11 W/m 0,0 km/h (0 Bft)
14.05.2013 20:50 10,4 C 9,0 C 89 % 1004,9 hPa 0,0 l/m 0 min 0 min 0,0 UV-I 11 W/m 2,6 km/h (1 Bft)
14.05.2013 20:52 10,4 C 9,0 C 89 % 1004,9 hPa 0,0 l/m 0 min 0 min 0,0 UV-I 9 W/m 0,0 km/h (0 Bft)
14.05.2013 20:54 10,4 C 9,0 C 89 % 1004,9 hPa 0,0 l/m 0 min 0 min 0,0 UV-I 9 W/m 7,7 km/h (2 Bft)
14.05.2013 20:56 10,4 C 9,0 C 89 % 1004,9 hPa 0,0 l/m 0 min 0 min 0,0 UV-I 9 W/m 7,7 km/h (2 Bft)
14.05.2013 20:58 10,4 C 9,0 C 89 % 1004,8 hPa 0,0 l/m 0 min 0 min 0,0 UV-I 7 W/m 10,3 km/h (2 Bft)
14.05.2013 21:00 10,4 C 9,0 C 89 % 1004,8 hPa 0,0 l/m 0 min 0 min 0,0 UV-I 7 W/m 2,6 km/h (1 Bft)
14.05.2013 21:02 10,3 C 9,0 C 89 % 1004,8 hPa 0,0 l/m 0 min 0 min 0,0 UV-I 7 W/m 2,6 km/h (1 Bft)
14.05.2013 21:04 10,3 C 9,0 C 89 % 1004,8 hPa 0,0 l/m 0 min 0 min 0,0 UV-I 5 W/m 5,1 km/h (1 Bft)
14.05.2013 21:06 10,3 C 9,0 C 89 % 1004,7 hPa 0,0 l/m 0 min 0 min 0,0 UV-I 5 W/m 2,6 km/h (1 Bft)
14.05.2013 21:08 10,3 C 9,0 C 90 % 1004,7 hPa 0,0 l/m 0 min 0 min 0,0 UV-I 5 W/m 0,0 km/h (0 Bft)
14.05.2013 21:10 10,3 C 9,0 C 90 % 1004,7 hPa 0,0 l/m 0 min 0 min 0,0 UV-I 0 W/m 2,6 km/h (1 Bft)
14.05.2013 21:12 10,3 C 9,0 C 90 % 1004,6 hPa 0,0 l/m 0 min 0 min 0,0 UV-I 0 W/m 0,0 km/h (0 Bft)
14.05.2013 21:14 10,3 C 9,0 C 90 % 1004,7 hPa 0,0 l/m 0 min 0 min 0,0 UV-I 0 W/m 0,0 km/h (0 Bft)
14.05.2013 21:16 10,3 C 9,0 C 90 % 1004,7 hPa 0,0 l/m 0 min 0 min 0,0 UV-I 0 W/m 0,0 km/h (0 Bft)
14.05.2013 21:18 10,3 C 9,0 C 90 % 1004,6 hPa 0,0 l/m 0 min 0 min 0,0 UV-I 0 W/m 2,6 km/h (1 Bft)
14.05.2013 21:20 10,3 C 9,0 C 90 % 1004,7 hPa 0,0 l/m 0 min 0 min 0,0 UV-I 0 W/m 5,1 km/h (1 Bft)
14.05.2013 21:22 10,3 C 9,0 C 90 % 1004,6 hPa 0,0 l/m 0 min 0 min 0,0 UV-I 0 W/m 0,0 km/h (0 Bft)
14.05.2013 21:24 10,2 C 9,0 C 90 % 1004,6 hPa 0,0 l/m 0 min 0 min 0,0 UV-I 0 W/m 0,0 km/h (0 Bft)
14.05.2013 21:26 10,2 C 9,0 C 90 % 1004,5 hPa 0,0 l/m 0 min 0 min 0,0 UV-I 0 W/m 7,7 km/h (2 Bft)
14.05.2013 21:28 10,2 C 9,0 C 90 % 1004,5 hPa 0,0 l/m 0 min 0 min 0,0 UV-I 0 W/m 0,0 km/h (0 Bft)
14.05.2013 21:30 10,2 C 9,0 C 90 % 1004,5 hPa 0,0 l/m 0 min 0 min 0,0 UV-I 0 W/m 0,0 km/h (0 Bft)
14.05.2013 21:32 10,2 C 9,0 C 90 % 1004,4 hPa 0,0 l/m 0 min 0 min 0,0 UV-I 0 W/m 5,1 km/h (1 Bft)
14.05.2013 21:34 10,2 C 9,0 C 90 % 1004,5 hPa 0,0 l/m 0 min 0 min 0,0 UV-I 0 W/m 0,0 km/h (0 Bft)
14.05.2013 21:36 10,2 C 9,0 C 90 % 1004,5 hPa 0,0 l/m 0 min 0 min 0,0 UV-I 0 W/m 10,3 km/h (2 Bft)
14.05.2013 21:38 10,2 C 9,0 C 90 % 1004,4 hPa 0,0 l/m 0 min 0 min 0,0 UV-I 0 W/m 0,0 km/h (0 Bft)
14.05.2013 21:40 10,2 C 9,0 C 90 % 1004,4 hPa 0,0 l/m 0 min 0 min 0,0 UV-I 0 W/m 5,1 km/h (1 Bft)
14.05.2013 21:42 10,2 C 9,0 C 90 % 1004,4 hPa 0,0 l/m 0 min 0 min 0,0 UV-I 0 W/m 5,1 km/h (1 Bft)
14.05.2013 21:44 10,2 C 9,0 C 90 % 1004,4 hPa 0,0 l/m 0 min 0 min 0,0 UV-I 0 W/m 7,7 km/h (2 Bft)
14.05.2013 21:46 10,2 C 9,0 C 91 % 1004,3 hPa 0,0 l/m 0 min 0 min 0,0 UV-I 0 W/m 2,6 km/h (1 Bft)
14.05.2013 21:48 10,2 C 9,0 C 91 % 1004,3 hPa 0,0 l/m 0 min 0 min 0,0 UV-I 0 W/m 0,0 km/h (0 Bft)
14.05.2013 21:50 10,1 C 9,0 C 91 % 1004,3 hPa 0,0 l/m 0 min 0 min 0,0 UV-I 0 W/m 10,3 km/h (2 Bft)
14.05.2013 21:52 10,1 C 9,0 C 91 % 1004,4 hPa 0,0 l/m 0 min 0 min 0,0 UV-I 0 W/m 5,1 km/h (1 Bft)
14.05.2013 21:54 10,1 C 9,0 C 91 % 1004,3 hPa 0,0 l/m 0 min 0 min 0,0 UV-I 0 W/m 7,7 km/h (2 Bft)
14.05.2013 21:56 10,1 C 9,0 C 91 % 1004,3 hPa 0,0 l/m 0 min 0 min 0,0 UV-I 0 W/m 5,1 km/h (1 Bft)
14.05.2013 21:58 10,1 C 9,0 C 91 % 1004,3 hPa 0,0 l/m 0 min 0 min 0,0 UV-I 0 W/m 0,0 km/h (0 Bft)
14.05.2013 22:00 10,1 C 9,0 C 91 % 1004,3 hPa 0,0 l/m 0 min 0 min 0,0 UV-I 0 W/m 2,6 km/h (1 Bft)
14.05.2013 22:02 10,1 C 9,0 C 91 % 1004,2 hPa 0,0 l/m 0 min 0 min 0,0 UV-I 0 W/m 0,0 km/h (0 Bft)
14.05.2013 22:04 10,1 C 9,0 C 91 % 1004,2 hPa 0,0 l/m 0 min 0 min 0,0 UV-I 0 W/m 0,0 km/h (0 Bft)
14.05.2013 22:06 10,1 C 9,0 C 91 % 1004,2 hPa 0,0 l/m 0 min 0 min 0,0 UV-I 0 W/m 5,1 km/h (1 Bft)
14.05.2013 22:08 10,1 C 9,0 C 91 % 1004,1 hPa 0,0 l/m 0 min 0 min 0,0 UV-I 0 W/m 2,6 km/h (1 Bft)
14.05.2013 22:10 10,1 C 9,0 C 91 % 1004,1 hPa 0,0 l/m 0 min 0 min 0,0 UV-I 0 W/m 2,6 km/h (1 Bft)
14.05.2013 22:12 10,1 C 9,0 C 92 % 1004,1 hPa 0,0 l/m 0 min 0 min 0,0 UV-I 0 W/m 5,1 km/h (1 Bft)
14.05.2013 22:14 10,1 C 9,0 C 92 % 1004,1 hPa 0,0 l/m 0 min 0 min 0,0 UV-I 0 W/m 0,0 km/h (0 Bft)
14.05.2013 22:16 10,0 C 9,0 C 92 % 1004,0 hPa 0,0 l/m 0 min 0 min 0,0 UV-I 0 W/m 7,7 km/h (2 Bft)
14.05.2013 22:18 10,0 C 9,0 C 92 % 1004,0 hPa 0,0 l/m 0 min 0 min 0,0 UV-I 0 W/m 5,1 km/h (1 Bft)
14.05.2013 22:20 10,0 C 9,0 C 92 % 1004,1 hPa 0,0 l/m 0 min 0 min 0,0 UV-I 0 W/m 0,0 km/h (0 Bft)
14.05.2013 22:22 10,0 C 9,0 C 92 % 1004,1 hPa 0,0 l/m 0 min 0 min 0,0 UV-I 0 W/m 0,0 km/h (0 Bft)
14.05.2013 22:24 10,0 C 9,0 C 92 % 1004,0 hPa 0,0 l/m 0 min 0 min 0,0 UV-I 0 W/m 7,7 km/h (2 Bft)
14.05.2013 22:26 10,0 C 9,0 C 92 % 1004,0 hPa 0,0 l/m 0 min 0 min 0,0 UV-I 0 W/m 0,0 km/h (0 Bft)
14.05.2013 22:28 9,9 C 9,0 C 92 % 1004,0 hPa 0,0 l/m 0 min 0 min 0,0 UV-I 0 W/m 5,1 km/h (1 Bft)
14.05.2013 22:30 9,9 C 9,0 C 92 % 1004,0 hPa 0,0 l/m 0 min 0 min 0,0 UV-I 0 W/m 0,0 km/h (0 Bft)
14.05.2013 22:32 9,9 C 9,0 C 92 % 1004,0 hPa 0,0 l/m 0 min 0 min 0,0 UV-I 0 W/m 0,0 km/h (0 Bft)
14.05.2013 22:34 9,9 C 9,0 C 92 % 1003,9 hPa 0,0 l/m 0 min 0 min 0,0 UV-I 0 W/m 7,7 km/h (2 Bft)
14.05.2013 22:36 9,9 C 9,0 C 92 % 1004,0 hPa 0,0 l/m 0 min 0 min 0,0 UV-I 0 W/m 0,0 km/h (0 Bft)
14.05.2013 22:38 9,9 C 9,0 C 92 % 1003,9 hPa 0,0 l/m 0 min 0 min 0,0 UV-I 0 W/m 0,0 km/h (0 Bft)
14.05.2013 22:40 9,9 C 9,0 C 92 % 1004,0 hPa 0,0 l/m 0 min 0 min 0,0 UV-I 0 W/m 0,0 km/h (0 Bft)
14.05.2013 22:42 9,9 C 9,0 C 92 % 1003,9 hPa 0,0 l/m 0 min 0 min 0,0 UV-I 0 W/m 0,0 km/h (0 Bft)
14.05.2013 22:44 9,9 C 9,0 C 92 % 1003,9 hPa 0,0 l/m 0 min 0 min 0,0 UV-I 0 W/m 0,0 km/h (0 Bft)
14.05.2013 22:46 9,9 C 9,0 C 92 % 1003,8 hPa 0,0 l/m 0 min 0 min 0,0 UV-I 0 W/m 0,0 km/h (0 Bft)
14.05.2013 22:48 9,9 C 9,0 C 92 % 1003,8 hPa 0,0 l/m 0 min 0 min 0,0 UV-I 0 W/m 0,0 km/h (0 Bft)
14.05.2013 22:50 9,9 C 9,0 C 92 % 1003,8 hPa 0,0 l/m 0 min 0 min 0,0 UV-I 0 W/m 0,0 km/h (0 Bft)
14.05.2013 22:52 9,9 C 9,0 C 92 % 1003,8 hPa 0,0 l/m 0 min 0 min 0,0 UV-I 0 W/m 0,0 km/h (0 Bft)
14.05.2013 22:54 9,9 C 9,0 C 92 % 1003,8 hPa 0,0 l/m 0 min 0 min 0,0 UV-I 0 W/m 5,1 km/h (1 Bft)
14.05.2013 22:56 9,9 C 9,0 C 92 % 1003,7 hPa 0,0 l/m 0 min 0 min 0,0 UV-I 0 W/m 0,0 km/h (0 Bft)
14.05.2013 22:58 9,9 C 9,0 C 93 % 1003,7 hPa 0,0 l/m 0 min 0 min 0,0 UV-I 0 W/m 0,0 km/h (0 Bft)
14.05.2013 23:00 9,9 C 9,0 C 93 % 1003,7 hPa 0,0 l/m 0 min 0 min 0,0 UV-I 0 W/m 0,0 km/h (0 Bft)
14.05.2013 23:02 9,9 C 9,0 C 93 % 1003,7 hPa 0,0 l/m 0 min 0 min 0,0 UV-I 0 W/m 0,0 km/h (0 Bft)
14.05.2013 23:04 9,9 C 9,0 C 93 % 1003,6 hPa 0,0 l/m 0 min 2 min 0,0 UV-I 0 W/m 0,0 km/h (0 Bft)
14.05.2013 23:06 9,8 C 9,0 C 93 % 1003,6 hPa 0,0 l/m 0 min 0 min 0,0 UV-I 0 W/m 0,0 km/h (0 Bft)
14.05.2013 23:08 9,8 C 9,0 C 93 % 1003,6 hPa 0,0 l/m 0 min 0 min 0,0 UV-I 0 W/m 0,0 km/h (0 Bft)
14.05.2013 23:10 9,9 C 9,0 C 93 % 1003,6 hPa 0,0 l/m 0 min 0 min 0,0 UV-I 0 W/m 0,0 km/h (0 Bft)
14.05.2013 23:12 9,8 C 9,0 C 93 % 1003,5 hPa 0,0 l/m 0 min 0 min 0,0 UV-I 0 W/m 0,0 km/h (0 Bft)
14.05.2013 23:14 9,8 C 9,0 C 93 % 1003,6 hPa 0,0 l/m 0 min 0 min 0,0 UV-I 0 W/m 0,0 km/h (0 Bft)
14.05.2013 23:16 9,9 C 9,0 C 93 % 1003,5 hPa 0,0 l/m 0 min 0 min 0,0 UV-I 0 W/m 0,0 km/h (0 Bft)
14.05.2013 23:18 9,8 C 9,0 C 93 % 1003,5 hPa 0,0 l/m 0 min 0 min 0,0 UV-I 0 W/m 0,0 km/h (0 Bft)
14.05.2013 23:20 9,8 C 9,0 C 93 % 1003,5 hPa 0,0 l/m 0 min 0 min 0,0 UV-I 0 W/m 0,0 km/h (0 Bft)
14.05.2013 23:22 9,9 C 9,0 C 93 % 1003,4 hPa 0,0 l/m 0 min 0 min 0,0 UV-I 0 W/m 0,0 km/h (0 Bft)
14.05.2013 23:24 9,8 C 9,0 C 93 % 1003,4 hPa 0,0 l/m 0 min 0 min 0,0 UV-I 0 W/m 0,0 km/h (0 Bft)
14.05.2013 23:26 9,9 C 9,0 C 93 % 1003,3 hPa 0,0 l/m 0 min 0 min 0,0 UV-I 0 W/m 0,0 km/h (0 Bft)
14.05.2013 23:28 9,9 C 9,0 C 93 % 1003,3 hPa 0,0 l/m 0 min 0 min 0,0 UV-I 0 W/m 0,0 km/h (0 Bft)
14.05.2013 23:30 9,9 C 9,0 C 93 % 1003,2 hPa 0,0 l/m 0 min 0 min 0,0 UV-I 0 W/m 0,0 km/h (0 Bft)
14.05.2013 23:32 9,8 C 9,0 C 93 % 1003,2 hPa 0,0 l/m 0 min 0 min 0,0 UV-I 0 W/m 0,0 km/h (0 Bft)
14.05.2013 23:34 9,8 C 9,0 C 93 % 1003,2 hPa 0,0 l/m 0 min 0 min 0,0 UV-I 0 W/m 0,0 km/h (0 Bft)
14.05.2013 23:36 9,9 C 9,0 C 93 % 1003,2 hPa 0,0 l/m 0 min 0 min 0,0 UV-I 0 W/m 0,0 km/h (0 Bft)
14.05.2013 23:38 9,9 C 9,0 C 93 % 1003,1 hPa 0,0 l/m 0 min 0 min 0,0 UV-I 0 W/m 0,0 km/h (0 Bft)
14.05.2013 23:40 9,9 C 9,0 C 93 % 1003,1 hPa 0,0 l/m 0 min 0 min 0,0 UV-I 0 W/m 0,0 km/h (0 Bft)
14.05.2013 23:42 9,8 C 9,0 C 93 % 1003,0 hPa 0,0 l/m 0 min 0 min 0,0 UV-I 0 W/m 2,6 km/h (1 Bft)
14.05.2013 23:44 9,8 C 9,0 C 93 % 1002,9 hPa 0,0 l/m 0 min 0 min 0,0 UV-I 0 W/m 0,0 km/h (0 Bft)
14.05.2013 23:46 9,8 C 9,0 C 94 % 1002,9 hPa 0,0 l/m 0 min 0 min 0,0 UV-I 0 W/m 0,0 km/h (0 Bft)
14.05.2013 23:48 9,8 C 8,4 C 94 % 1002,8 hPa 0,0 l/m 0 min 0 min 0,0 UV-I 0 W/m 0,0 km/h (0 Bft)
14.05.2013 23:50 9,8 C 8,4 C 94 % 1002,9 hPa 0,0 l/m 0 min 0 min 0,0 UV-I 0 W/m 0,0 km/h (0 Bft)
14.05.2013 23:52 9,8 C 8,4 C 94 % 1002,9 hPa 0,0 l/m 0 min 0 min 0,0 UV-I 0 W/m 0,0 km/h (0 Bft)
14.05.2013 23:54 9,8 C 8,4 C 94 % 1002,8 hPa 0,0 l/m 0 min 0 min 0,0 UV-I 0 W/m 0,0 km/h (0 Bft)
14.05.2013 23:56 9,8 C 8,4 C 94 % 1002,8 hPa 0,0 l/m 0 min 0 min 0,0 UV-I 0 W/m 0,0 km/h (0 Bft)
14.05.2013 23:58 9,8 C 8,4 C 94 % 1002,7 hPa 0,0 l/m 0 min 0 min 0,0 UV-I 0 W/m 0,0 km/h (0 Bft)
_ Min-Zeit 05:52 04:18 14:12 23:58 - - - - - 00:00
Minimum _ 8,4 C 7,3 C 62 % 1002,7 hPa - - - - - 0,0 km/h (0 Bft)
_ Max-Zeit 13:48 09:56 23:46 00:12 17:54 07:00 12:26 14:08 10:02 00:34
Maximum _ 14,0 C 15,7 C 94 % 1011,2 hPa 0,2 l/m 2 min 2 min 2,8 UV-I 779 W/m 28,3 km/h
W-SW (4 Bft)
Durchschnitt _ 10,9 C 10,3 C 78 % 1008,6 hPa #0,4 l/m #2:24 h #3:08 h 1,4 UV-I 215 W/m 7,5 km/h (2 Bft)
© 2013 W. Hausmann